| time (UTC) | temp F | wind direction | speed MPH | gust MPH | rain 1hr in | rain 24hr in | rain mn in | humidity % | barometer mb |
| 20260906215541 | 92 | 355 | 1.0 | 10.0 | 0.00 | 0.00 | 0.00 | 30 | 1015.3 |
| 20260906215416 | 92 | 115 | 1.0 | 10.0 | 0.00 | 0.00 | 0.00 | 30 | 1015.3 |
| 20260906215343 | 92 | 82 | 1.0 | 10.0 | 0.00 | 0.00 | 0.00 | 30 | 1015.3 |
| 20260906215229 | 92 | 287 | 1.0 | 10.0 | 0.00 | 0.00 | 0.00 | 30 | 1015.4 |
| 20260906215121 | 92 | 17 | 3.0 | 10.0 | 0.00 | 0.00 | 0.00 | 30 | 1015.5 |
| 20260906215040 | 92 | 84 | 5.0 | 10.0 | 0.00 | 0.00 | 0.00 | 30 | 1015.5 |
| 20260906214919 | 92 | 5 | 4.0 | 10.0 | 0.00 | 0.00 | 0.00 | 31 | 1015.4 |
| 20260906214833 | 92 | 343 | 3.0 | 8.0 | 0.00 | 0.00 | 0.00 | 31 | 1015.5 |
| 20260906214747 | 92 | 26 | 3.0 | 8.0 | 0.00 | 0.00 | 0.00 | 31 | 1015.4 |
| 20260906214742 | 92 | 355 | 3.0 | 8.0 | 0.00 | 0.00 | 0.00 | 31 | 1015.4 |
| 20260906214724 | 91 | 35 | 2.0 | 9.0 | 0.00 | 0.00 | 0.00 | 31 | 1015.4 |
| 20260906214439 | 91 | 9 | 2.0 | 9.0 | 0.00 | 0.00 | 0.00 | 31 | 1015.5 |
| 20260906214331 | 91 | 31 | 1.0 | 9.0 | 0.00 | 0.00 | 0.00 | 31 | 1015.5 |
| 20260906214232 | 91 | 5 | 2.0 | 9.0 | 0.00 | 0.00 | 0.00 | 31 | 1015.5 |
| 20260906214128 | 91 | 112 | 3.0 | 9.0 | 0.00 | 0.00 | 0.00 | 31 | 1015.6 |
| 20260906214023 | 90 | 108 | 2.0 | 9.0 | 0.00 | 0.00 | 0.00 | 31 | 1015.6 |
| 20260906213933 | 90 | 24 | 3.0 | 9.0 | 0.00 | 0.00 | 0.00 | 31 | 1015.6 |
| 20260906213840 | 90 | 67 | 5.0 | 9.0 | 0.00 | 0.00 | 0.00 | 31 | 1015.6 |
| 20260906213718 | 90 | 344 | 3.0 | 9.0 | 0.00 | 0.00 | 0.00 | 31 | 1015.6 |
| 20260906213638 | 90 | 254 | 3.0 | 9.0 | 0.00 | 0.00 | 0.00 | 31 | 1015.7 |
| 20260906213532 | 90 | 245 | 5.0 | 9.0 | 0.00 | 0.00 | 0.00 | 31 | 1015.6 |
| 20260906213432 | 90 | 290 | 5.0 | 10.0 | 0.00 | 0.00 | 0.00 | 31 | 1015.6 |
| 20260906213340 | 90 | 234 | 3.0 | 10.0 | 0.00 | 0.00 | 0.00 | 31 | 1015.6 |
| 20260906213234 | 90 | 336 | 3.0 | 10.0 | 0.00 | 0.00 | 0.00 | 31 | 1015.6 |
| 20260906213229 | 90 | 315 | 4.0 | 10.0 | 0.00 | 0.00 | 0.00 | 31 | 1015.7 |
| 20260906213148 | 90 | 17 | 4.0 | 10.0 | 0.00 | 0.00 | 0.00 | 31 | 1015.7 |
| 20260906212918 | 90 | 338 | 4.0 | 10.0 | 0.00 | 0.00 | 0.00 | 31 | 1015.7 |
| 20260906212822 | 90 | 360 | 4.0 | 10.0 | 0.00 | 0.00 | 0.00 | 31 | 1015.7 |
| 20260906212719 | 90 | 306 | 5.0 | 10.0 | 0.00 | 0.00 | 0.00 | 31 | 1015.7 |
| 20260906212629 | 89 | 332 | 4.0 | 13.0 | 0.00 | 0.00 | 0.00 | 31 | 1015.8 |
| 20260906212528 | 89 | 328 | 3.0 | 13.0 | 0.00 | 0.00 | 0.00 | 31 | 1015.6 |
| 20260906212417 | 89 | 312 | 4.0 | 13.0 | 0.00 | 0.00 | 0.00 | 31 | 1015.8 |
| 20260906212342 | 89 | 40 | 5.0 | 13.0 | 0.00 | 0.00 | 0.00 | 31 | 1015.8 |
| 20260906212242 | 89 | 19 | 5.0 | 13.0 | 0.00 | 0.00 | 0.00 | 31 | 1015.8 |
| 20260906212131 | 89 | 55 | 4.0 | 13.0 | 0.00 | 0.00 | 0.00 | 31 | 1015.8 |
| 20260906212020 | 89 | 331 | 4.0 | 13.0 | 0.00 | 0.00 | 0.00 | 31 | 1015.8 |
| 20260906211931 | 89 | 277 | 5.0 | 13.0 | 0.00 | 0.00 | 0.00 | 31 | 1015.8 |
| 20260906211838 | 89 | 300 | 7.0 | 13.0 | 0.00 | 0.00 | 0.00 | 31 | 1015.9 |
| 20260906211743 | 89 | 290 | 7.0 | 13.0 | 0.00 | 0.00 | 0.00 | 31 | 1016.0 |
| 20260906211740 | 89 | 292 | 5.0 | 10.0 | 0.00 | 0.00 | 0.00 | 32 | 1016.0 |
| 20260906211730 | 89 | 307 | 4.0 | 10.0 | 0.00 | 0.00 | 0.00 | 31 | 1016.0 |
| 20260906211440 | 89 | 297 | 3.0 | 10.0 | 0.00 | 0.00 | 0.00 | 32 | 1016.0 |
| 20260906211341 | 89 | 5 | 3.0 | 10.0 | 0.00 | 0.00 | 0.00 | 32 | 1016.0 |
| 20260906211232 | 89 | 360 | 3.0 | 10.0 | 0.00 | 0.00 | 0.00 | 32 | 1016.0 |
| 20260906211124 | 89 | 296 | 4.0 | 10.0 | 0.00 | 0.00 | 0.00 | 32 | 1016.0 |
| 20260906211048 | 89 | 5 | 4.0 | 9.0 | 0.00 | 0.00 | 0.00 | 32 | 1016.0 |
| 20260906210939 | 88 | 24 | 4.0 | 10.0 | 0.00 | 0.00 | 0.00 | 33 | 1015.9 |
| 20260906210821 | 88 | 257 | 4.0 | 13.0 | 0.00 | 0.00 | 0.00 | 33 | 1016.0 |
| 20260906210742 | 88 | 279 | 4.0 | 13.0 | 0.00 | 0.00 | 0.00 | 34 | 1016.0 |
| 20260906210642 | 88 | 257 | 3.0 | 14.0 | 0.00 | 0.00 | 0.00 | 33 | 1016.0 |
| 20260906210526 | 88 | 253 | 4.0 | 14.0 | 0.00 | 0.00 | 0.00 | 33 | 1016.1 |
| 20260906210425 | 88 | 263 | 6.0 | 14.0 | 0.00 | 0.00 | 0.00 | 33 | 1016.0 |
| 20260906210342 | 88 | 279 | 6.0 | 14.0 | 0.00 | 0.00 | 0.00 | 33 | 1016.1 |
| 20260906210302 | 88 | 277 | 6.0 | 14.0 | 0.00 | 0.00 | 0.00 | 33 | 1016.1 |
| 20260906210256 | 88 | 255 | 6.0 | 14.0 | 0.00 | 0.00 | 0.00 | 33 | 1016.1 |
| 20260906210232 | 88 | 301 | 7.0 | 14.0 | 0.00 | 0.00 | 0.00 | 34 | 1016.2 |
| 20260906205943 | 88 | 273 | 9.0 | 14.0 | 0.00 | 0.00 | 0.00 | 33 | 1016.2 |
| 20260906205831 | 88 | 287 | 7.0 | 14.0 | 0.00 | 0.00 | 0.00 | 34 | 1016.2 |
| 20260906205740 | 88 | 254 | 4.0 | 11.0 | 0.00 | 0.00 | 0.00 | 33 | 1016.2 |
| 20260906205628 | 88 | 290 | 4.0 | 11.0 | 0.00 | 0.00 | 0.00 | 33 | 1016.2 |
| 20260906205518 | 88 | 276 | 4.0 | 11.0 | 0.00 | 0.00 | 0.00 | 33 | 1016.2 |
| 20260906205442 | 88 | 284 | 4.0 | 13.0 | 0.00 | 0.00 | 0.00 | 32 | 1016.2 |
| 20260906205341 | 88 | 246 | 4.0 | 13.0 | 0.00 | 0.00 | 0.00 | 32 | 1016.2 |
| 20260906205245 | 88 | 259 | 4.0 | 13.0 | 0.00 | 0.00 | 0.00 | 32 | 1016.2 |
| 20260906205141 | 88 | 251 | 6.0 | 13.0 | 0.00 | 0.00 | 0.00 | 33 | 1016.3 |
| 20260906205019 | 88 | 280 | 6.0 | 13.0 | 0.00 | 0.00 | 0.00 | 32 | 1016.2 |
| 20260906204940 | 88 | 281 | 5.0 | 13.0 | 0.00 | 0.00 | 0.00 | 33 | 1016.2 |
| 20260906204834 | 88 | 251 | 4.0 | 13.0 | 0.00 | 0.00 | 0.00 | 33 | 1016.2 |
| 20260906204741 | 88 | 232 | 7.0 | 13.0 | 0.00 | 0.00 | 0.00 | 33 | 1016.3 |
| 20260906204732 | 88 | 265 | 8.0 | 13.0 | 0.00 | 0.00 | 0.00 | 33 | 1016.2 |
| 20260906204648 | 88 | 269 | 5.0 | 12.0 | 0.00 | 0.00 | 0.00 | 33 | 1016.3 |
| 20260906204434 | 88 | 277 | 4.0 | 12.0 | 0.00 | 0.00 | 0.00 | 33 | 1016.3 |
| 20260906204318 | 88 | 297 | 4.0 | 12.0 | 0.00 | 0.00 | 0.00 | 33 | 1016.3 |
| 20260906204232 | 88 | 301 | 6.0 | 12.0 | 0.00 | 0.00 | 0.00 | 33 | 1016.3 |
| 20260906204135 | 88 | 243 | 6.0 | 12.0 | 0.00 | 0.00 | 0.00 | 33 | 1016.3 |
| 20260906204035 | 89 | 241 | 6.0 | 12.0 | 0.00 | 0.00 | 0.00 | 32 | 1016.3 |
| 20260906203924 | 89 | 40 | 6.0 | 12.0 | 0.00 | 0.00 | 0.00 | 32 | 1016.3 |
| 20260906203833 | 89 | 296 | 4.0 | 12.0 | 0.00 | 0.00 | 0.00 | 32 | 1016.3 |
| 20260906203734 | 89 | 333 | 2.0 | 9.0 | 0.00 | 0.00 | 0.00 | 32 | 1016.2 |
| 20260906203628 | 89 | 231 | 0.0 | 9.0 | 0.00 | 0.00 | 0.00 | 33 | 1016.3 |
| 20260906203525 | 89 | 66 | 0.0 | 9.0 | 0.00 | 0.00 | 0.00 | 33 | 1016.3 |
| 20260906203446 | 89 | 355 | 0.0 | 9.0 | 0.00 | 0.00 | 0.00 | 33 | 1016.4 |
| 20260906203343 | 89 | 292 | 1.0 | 9.0 | 0.00 | 0.00 | 0.00 | 33 | 1016.5 |
| 20260906203236 | 89 | 128 | 2.0 | 9.0 | 0.00 | 0.00 | 0.00 | 33 | 1016.5 |
| 20260906203231 | 88 | 5 | 4.0 | 9.0 | 0.00 | 0.00 | 0.00 | 32 | 1016.5 |
| 20260906203218 | 89 | 332 | 3.0 | 9.0 | 0.00 | 0.00 | 0.00 | 33 | 1016.5 |
| 20260906202928 | 88 | 343 | 1.0 | 5.0 | 0.00 | 0.00 | 0.00 | 33 | 1016.3 |
| 20260906202825 | 88 | 333 | 1.0 | 7.0 | 0.00 | 0.00 | 0.00 | 34 | 1016.3 |
| 20260906202729 | 88 | 219 | 1.0 | 7.0 | 0.00 | 0.00 | 0.00 | 33 | 1016.3 |
| 20260906202629 | 88 | 352 | 1.0 | 8.0 | 0.00 | 0.00 | 0.00 | 34 | 1016.4 |
| 20260906202518 | 88 | 28 | 2.0 | 8.0 | 0.00 | 0.00 | 0.00 | 34 | 1016.4 |
| 20260906202440 | 88 | 29 | 2.0 | 8.0 | 0.00 | 0.00 | 0.00 | 34 | 1016.5 |
| 20260906202317 | 88 | 300 | 2.0 | 8.0 | 0.00 | 0.00 | 0.00 | 34 | 1016.4 |
| 20260906202235 | 87 | 15 | 2.0 | 11.0 | 0.00 | 0.00 | 0.00 | 33 | 1016.4 |
| 20260906202125 | 87 | 14 | 2.0 | 11.0 | 0.00 | 0.00 | 0.00 | 34 | 1016.5 |
| 20260906202021 | 87 | 51 | 3.0 | 11.0 | 0.00 | 0.00 | 0.00 | 34 | 1016.4 |
| 20260906201931 | 87 | 75 | 5.0 | 11.0 | 0.00 | 0.00 | 0.00 | 34 | 1016.5 |
| 20260906201827 | 87 | 31 | 5.0 | 11.0 | 0.00 | 0.00 | 0.00 | 34 | 1016.5 |
| 20260906201733 | 87 | 360 | 5.0 | 11.0 | 0.00 | 0.00 | 0.00 | 34 | 1016.5 |
| 20260906201724 | 87 | 36 | 4.0 | 11.0 | 0.00 | 0.00 | 0.00 | 34 | 1016.4 |
| 20260906201718 | 87 | 26 | 5.0 | 11.0 | 0.00 | 0.00 | 0.00 | 34 | 1016.5 |
| 20260906201435 | 87 | 285 | 5.0 | 11.0 | 0.00 | 0.00 | 0.00 | 34 | 1016.5 |
| 20260906201331 | 87 | 245 | 3.0 | 11.0 | 0.00 | 0.00 | 0.00 | 34 | 1016.5 |
| 20260906201240 | 87 | 15 | 2.0 | 10.0 | 0.00 | 0.00 | 0.00 | 35 | 1016.5 |
| 20260906201135 | 87 | 288 | 3.0 | 10.0 | 0.00 | 0.00 | 0.00 | 34 | 1016.5 |
| 20260906201020 | 87 | 32 | 4.0 | 10.0 | 0.00 | 0.00 | 0.00 | 34 | 1016.6 |
| 20260906200932 | 87 | 5 | 4.0 | 10.0 | 0.00 | 0.00 | 0.00 | 35 | 1016.6 |
| 20260906200841 | 87 | 309 | 4.0 | 12.0 | 0.00 | 0.00 | 0.00 | 34 | 1016.7 |
| 20260906200741 | 86 | 360 | 4.0 | 12.0 | 0.00 | 0.00 | 0.00 | 35 | 1016.8 |
| 20260906200642 | 86 | 11 | 4.0 | 12.0 | 0.00 | 0.00 | 0.00 | 35 | 1016.7 |
| 20260906200532 | 86 | 11 | 3.0 | 12.0 | 0.00 | 0.00 | 0.00 | 35 | 1016.7 |
| 20260906200443 | 86 | 5 | 3.0 | 12.0 | 0.00 | 0.00 | 0.00 | 35 | 1016.7 |
| 20260906200326 | 86 | 338 | 3.0 | 12.0 | 0.00 | 0.00 | 0.00 | 35 | 1016.7 |
| 20260906200301 | 86 | 315 | 4.0 | 12.0 | 0.00 | 0.00 | 0.00 | 35 | 1016.7 |
| 20260906200253 | 86 | 313 | 5.0 | 12.0 | 0.00 | 0.00 | 0.00 | 36 | 1016.7 |
| 20260906200219 | 86 | 341 | 4.0 | 12.0 | 0.00 | 0.00 | 0.00 | 36 | 1016.7 |
| 20260906195928 | 86 | 333 | 1.0 | 10.0 | 0.00 | 0.00 | 0.00 | 36 | 1016.8 |
| 20260906195821 | 86 | 5 | 2.0 | 12.0 | 0.00 | 0.00 | 0.00 | 36 | 1016.7 |
| 20260906195718 | 85 | 15 | 2.0 | 12.0 | 0.00 | 0.00 | 0.00 | 36 | 1016.8 |
| 20260906195618 | 86 | 11 | 3.0 | 12.0 | 0.00 | 0.00 | 0.00 | 36 | 1016.9 |
| 20260906195523 | 86 | 297 | 3.0 | 14.0 | 0.00 | 0.00 | 0.00 | 36 | 1016.8 |
| 20260906195439 | 86 | 327 | 2.0 | 14.0 | 0.00 | 0.00 | 0.00 | 36 | 1016.8 |
| 20260906195341 | 86 | 285 | 3.0 | 14.0 | 0.00 | 0.00 | 0.00 | 36 | 1016.9 |
| 20260906195217 | 86 | 326 | 4.0 | 14.0 | 0.00 | 0.00 | 0.00 | 36 | 1016.8 |
| 20260906195143 | 86 | 254 | 5.0 | 14.0 | 0.00 | 0.00 | 0.00 | 36 | 1016.9 |
| 20260906195028 | 86 | 346 | 6.0 | 14.0 | 0.00 | 0.00 | 0.00 | 36 | 1016.9 |
| 20260906194918 | 86 | 336 | 4.0 | 14.0 | 0.00 | 0.00 | 0.00 | 36 | 1016.9 |
| 20260906194841 | 86 | 360 | 6.0 | 14.0 | 0.00 | 0.00 | 0.00 | 36 | 1016.9 |
| 20260906194731 | 86 | 269 | 4.0 | 14.0 | 0.00 | 0.00 | 0.00 | 36 | 1016.9 |
| 20260906194725 | 86 | 298 | 1.0 | 6.0 | 0.00 | 0.00 | 0.00 | 36 | 1016.8 |
| 20260906194718 | 85 | 320 | 1.0 | 6.0 | 0.00 | 0.00 | 0.00 | 36 | 1016.8 |
| 20260906194432 | 85 | 331 | 2.0 | 8.0 | 0.00 | 0.00 | 0.00 | 36 | 1016.9 |
| 20260906194327 | 85 | 302 | 3.0 | 10.0 | 0.00 | 0.00 | 0.00 | 36 | 1017.0 |
| 20260906194218 | 85 | 340 | 3.0 | 10.0 | 0.00 | 0.00 | 0.00 | 36 | 1017.0 |
| 20260906194123 | 85 | 326 | 3.0 | 10.0 | 0.00 | 0.00 | 0.00 | 36 | 1017.0 |
| 20260906194031 | 85 | 327 | 3.0 | 10.0 | 0.00 | 0.00 | 0.00 | 36 | 1017.0 |
| 20260906193946 | 85 | 360 | 3.0 | 10.0 | 0.00 | 0.00 | 0.00 | 36 | 1017.1 |
| 20260906193829 | 85 | 360 | 4.0 | 10.0 | 0.00 | 0.00 | 0.00 | 36 | 1016.9 |
| 20260906193728 | 85 | 10 | 4.0 | 10.0 | 0.00 | 0.00 | 0.00 | 36 | 1017.0 |
| 20260906193640 | 85 | 17 | 5.0 | 10.0 | 0.00 | 0.00 | 0.00 | 36 | 1017.1 |
| 20260906193544 | 85 | 320 | 3.0 | 10.0 | 0.00 | 0.00 | 0.00 | 36 | 1017.0 |
| 20260906193442 | 85 | 341 | 4.0 | 9.0 | 0.00 | 0.00 | 0.00 | 36 | 1017.0 |
| 20260906193344 | 85 | 305 | 5.0 | 9.0 | 0.00 | 0.00 | 0.00 | 35 | 1017.2 |
| 20260906193241 | 85 | 274 | 4.0 | 9.0 | 0.00 | 0.00 | 0.00 | 36 | 1017.0 |
| 20260906193230 | 85 | 16 | 2.0 | 8.0 | 0.00 | 0.00 | 0.00 | 36 | 1017.2 |
| 20260906193219 | 85 | 240 | 1.0 | 8.0 | 0.00 | 0.00 | 0.00 | 36 | 1017.2 |
| 20260906192943 | 85 | 280 | 1.0 | 8.0 | 0.00 | 0.00 | 0.00 | 36 | 1017.2 |
| 20260906192832 | 85 | 355 | 0.0 | 8.0 | 0.00 | 0.00 | 0.00 | 36 | 1017.2 |
| 20260906192728 | 84 | 111 | 1.0 | 8.0 | 0.00 | 0.00 | 0.00 | 37 | 1017.2 |
| 20260906192643 | 84 | 48 | 2.0 | 8.0 | 0.00 | 0.00 | 0.00 | 37 | 1017.2 |
| 20260906192525 | 84 | 17 | 2.0 | 8.0 | 0.00 | 0.00 | 0.00 | 37 | 1017.2 |
| 20260906192443 | 84 | 11 | 3.0 | 8.0 | 0.00 | 0.00 | 0.00 | 37 | 1017.2 |
| 20260906192340 | 83 | 39 | 4.0 | 10.0 | 0.00 | 0.00 | 0.00 | 37 | 1017.2 |
| 20260906192217 | 83 | 30 | 4.0 | 10.0 | 0.00 | 0.00 | 0.00 | 38 | 1017.1 |
| 20260906192140 | 83 | 328 | 4.0 | 11.0 | 0.00 | 0.00 | 0.00 | 38 | 1017.2 |
| 20260906192028 | 83 | 326 | 4.0 | 11.0 | 0.00 | 0.00 | 0.00 | 39 | 1017.2 |
| 20260906191929 | 83 | 290 | 2.0 | 11.0 | 0.00 | 0.00 | 0.00 | 39 | 1017.2 |
| 20260906191817 | 83 | 245 | 1.0 | 11.0 | 0.00 | 0.00 | 0.00 | 39 | 1017.2 |
| 20260906191741 | 83 | 250 | 3.0 | 11.0 | 0.00 | 0.00 | 0.00 | 38 | 1017.3 |
| 20260906191727 | 83 | 299 | 6.0 | 11.0 | 0.00 | 0.00 | 0.00 | 38 | 1017.4 |
| 20260906191710 | 83 | 312 | 6.0 | 11.0 | 0.00 | 0.00 | 0.00 | 38 | 1017.3 |
| 20260906191443 | 83 | 317 | 6.0 | 11.0 | 0.00 | 0.00 | 0.00 | 38 | 1017.4 |
| 20260906191326 | 83 | 301 | 5.0 | 11.0 | 0.00 | 0.00 | 0.00 | 37 | 1017.4 |
| 20260906191225 | 83 | 327 | 5.0 | 10.0 | 0.00 | 0.00 | 0.00 | 37 | 1017.4 |
| 20260906191144 | 83 | 310 | 2.0 | 10.0 | 0.00 | 0.00 | 0.00 | 38 | 1017.4 |
| 20260906191032 | 83 | 98 | 1.0 | 6.0 | 0.00 | 0.00 | 0.00 | 38 | 1017.4 |
| 20260906190936 | 83 | 87 | 1.0 | 6.0 | 0.00 | 0.00 | 0.00 | 38 | 1017.3 |
| 20260906190825 | 83 | 5 | 2.0 | 6.0 | 0.00 | 0.00 | 0.00 | 38 | 1017.4 |
| 20260906190741 | 83 | 5 | 2.0 | 6.0 | 0.00 | 0.00 | 0.00 | 38 | 1017.4 |
| 20260906190631 | 83 | 292 | 3.0 | 6.0 | 0.00 | 0.00 | 0.00 | 38 | 1017.4 |
| 20260906190533 | 83 | 281 | 2.0 | 6.0 | 0.00 | 0.00 | 0.00 | 38 | 1017.4 |
| 20260906190429 | 83 | 230 | 2.0 | 6.0 | 0.00 | 0.00 | 0.00 | 38 | 1017.5 |
| 20260906190318 | 83 | 348 | 3.0 | 8.0 | 0.00 | 0.00 | 0.00 | 38 | 1017.5 |
| 20260906190307 | 83 | 18 | 2.0 | 10.0 | 0.00 | 0.00 | 0.00 | 39 | 1017.5 |
| 20260906190231 | 82 | 5 | 2.0 | 10.0 | 0.00 | 0.00 | 0.00 | 39 | 1017.7 |
| 20260906185933 | 82 | 299 | 3.0 | 10.0 | 0.00 | 0.00 | 0.00 | 39 | 1017.5 |
| 20260906185837 | 82 | 251 | 3.0 | 10.0 | 0.00 | 0.00 | 0.00 | 40 | 1017.6 |
| 20260906185736 | 82 | 280 | 1.0 | 10.0 | 0.00 | 0.00 | 0.00 | 40 | 1017.6 |
| 20260906185642 | 82 | 284 | 2.0 | 10.0 | 0.00 | 0.00 | 0.00 | 40 | 1017.6 |
| 20260906185528 | 82 | 252 | 4.0 | 10.0 | 0.00 | 0.00 | 0.00 | 40 | 1017.6 |
| 20260906185430 | 82 | 302 | 6.0 | 10.0 | 0.00 | 0.00 | 0.00 | 40 | 1017.6 |
| 20260906185320 | 82 | 253 | 7.0 | 10.0 | 0.00 | 0.00 | 0.00 | 40 | 1017.7 |
| 20260906185227 | 82 | 271 | 6.0 | 10.0 | 0.00 | 0.00 | 0.00 | 40 | 1017.6 |
| 20260906185127 | 82 | 254 | 5.0 | 10.0 | 0.00 | 0.00 | 0.00 | 40 | 1017.6 |
| 20260906185028 | 82 | 246 | 5.0 | 10.0 | 0.00 | 0.00 | 0.00 | 40 | 1017.8 |
| 20260906184941 | 82 | 300 | 4.0 | 10.0 | 0.00 | 0.00 | 0.00 | 40 | 1017.7 |
| 20260906184842 | 82 | 204 | 2.0 | 10.0 | 0.00 | 0.00 | 0.00 | 41 | 1017.7 |
| 20260906184740 | 82 | 153 | 3.0 | 10.0 | 0.00 | 0.00 | 0.00 | 41 | 1017.7 |
| 20260906184735 | 82 | 148 | 3.0 | 10.0 | 0.00 | 0.00 | 0.00 | 41 | 1017.7 |
| 20260906184718 | 82 | 124 | 2.0 | 10.0 | 0.00 | 0.00 | 0.00 | 41 | 1017.8 |
| 20260906184425 | 82 | 221 | 4.0 | 10.0 | 0.00 | 0.00 | 0.00 | 41 | 1017.9 |
| 20260906184324 | 82 | 292 | 5.0 | 10.0 | 0.00 | 0.00 | 0.00 | 41 | 1017.9 |
| 20260906184218 | 82 | 301 | 3.0 | 10.0 | 0.00 | 0.00 | 0.00 | 41 | 1017.9 |
| 20260906184130 | 82 | 348 | 2.0 | 9.0 | 0.00 | 0.00 | 0.00 | 41 | 1017.8 |
| 20260906184031 | 82 | 348 | 3.0 | 9.0 | 0.00 | 0.00 | 0.00 | 41 | 1017.9 |
| 20260906183918 | 82 | 288 | 4.0 | 9.0 | 0.00 | 0.00 | 0.00 | 41 | 1017.9 |
| 20260906183819 | 82 | 326 | 4.0 | 9.0 | 0.00 | 0.00 | 0.00 | 41 | 1017.9 |
| 20260906183740 | 82 | 314 | 2.0 | 9.0 | 0.00 | 0.00 | 0.00 | 42 | 1018.0 |
| 20260906183619 | 82 | 285 | 0.0 | 8.0 | 0.00 | 0.00 | 0.00 | 42 | 1018.0 |
| 20260906183531 | 82 | 329 | 0.0 | 8.0 | 0.00 | 0.00 | 0.00 | 42 | 1017.9 |
| 20260906183417 | 82 | 54 | 1.0 | 8.0 | 0.00 | 0.00 | 0.00 | 42 | 1018.0 |
| 20260906183331 | 82 | 26 | 2.0 | 8.0 | 0.00 | 0.00 | 0.00 | 42 | 1018.0 |
| 20260906183245 | 82 | 355 | 3.0 | 8.0 | 0.00 | 0.00 | 0.00 | 42 | 1018.1 |
| 20260906183241 | 82 | 310 | 4.0 | 8.0 | 0.00 | 0.00 | 0.00 | 41 | 1018.1 |
| 20260906183148 | 82 | 297 | 4.0 | 8.0 | 0.00 | 0.00 | 0.00 | 42 | 1018.1 |
| 20260906182922 | 83 | 289 | 4.0 | 8.0 | 0.00 | 0.00 | 0.00 | 42 | 1018.1 |
| 20260906182842 | 83 | 355 | 4.0 | 8.0 | 0.00 | 0.00 | 0.00 | 42 | 1018.0 |
| 20260906182724 | 83 | 275 | 2.0 | 6.0 | 0.00 | 0.00 | 0.00 | 42 | 1018.1 |
| 20260906182638 | 83 | 88 | 1.0 | 3.0 | 0.00 | 0.00 | 0.00 | 42 | 1018.1 |
| 20260906182523 | 82 | 287 | 1.0 | 3.0 | 0.00 | 0.00 | 0.00 | 43 | 1018.1 |
| 20260906182442 | 82 | 329 | 1.0 | 3.0 | 0.00 | 0.00 | 0.00 | 42 | 1018.1 |
| 20260906182317 | 82 | 278 | 0.0 | 3.0 | 0.00 | 0.00 | 0.00 | 42 | 1018.1 |
| 20260906182240 | 82 | 11 | 0.0 | 3.0 | 0.00 | 0.00 | 0.00 | 42 | 1018.1 |
| 20260906182136 | 82 | 65 | 0.0 | 4.0 | 0.00 | 0.00 | 0.00 | 42 | 1018.2 |
| 20260906182023 | 82 | 77 | 0.0 | 5.0 | 0.00 | 0.00 | 0.00 | 41 | 1018.1 |
| 20260906181927 | 81 | 40 | 0.0 | 6.0 | 0.00 | 0.00 | 0.00 | 42 | 1018.2 |
| 20260906181824 | 81 | 45 | 0.0 | 6.0 | 0.00 | 0.00 | 0.00 | 43 | 1018.1 |
| 20260906181744 | 81 | 13 | 0.0 | 6.0 | 0.00 | 0.00 | 0.00 | 43 | 1018.2 |
| 20260906181737 | 81 | 13 | 1.0 | 6.0 | 0.00 | 0.00 | 0.00 | 43 | 1018.2 |
| 20260906181720 | 80 | 5 | 2.0 | 6.0 | 0.00 | 0.00 | 0.00 | 43 | 1018.2 |
| 20260906181422 | 80 | 37 | 2.0 | 6.0 | 0.00 | 0.00 | 0.00 | 42 | 1018.3 |
| 20260906181338 | 80 | 15 | 2.0 | 6.0 | 0.00 | 0.00 | 0.00 | 43 | 1018.3 |
| 20260906181218 | 80 | 334 | 3.0 | 6.0 | 0.00 | 0.00 | 0.00 | 43 | 1018.3 |
| 20260906181133 | 80 | 319 | 3.0 | 7.0 | 0.00 | 0.00 | 0.00 | 43 | 1018.3 |
| 20260906181035 | 80 | 290 | 3.0 | 7.0 | 0.00 | 0.00 | 0.00 | 43 | 1018.4 |
| 20260906180924 | 80 | 281 | 3.0 | 6.0 | 0.00 | 0.00 | 0.00 | 44 | 1018.4 |
| 20260906180825 | 80 | 304 | 2.0 | 6.0 | 0.00 | 0.00 | 0.00 | 44 | 1018.4 |
| 20260906180732 | 80 | 309 | 2.0 | 5.0 | 0.00 | 0.00 | 0.00 | 44 | 1018.4 |
| 20260906180625 | 80 | 302 | 2.0 | 5.0 | 0.00 | 0.00 | 0.00 | 44 | 1018.5 |
| 20260906180540 | 80 | 302 | 2.0 | 5.0 | 0.00 | 0.00 | 0.00 | 43 | 1018.4 |
| 20260906180444 | 80 | 336 | 3.0 | 5.0 | 0.00 | 0.00 | 0.00 | 44 | 1018.5 |
| 20260906180317 | 79 | 10 | 1.0 | 5.0 | 0.00 | 0.00 | 0.00 | 44 | 1018.5 |
| 20260906180306 | 79 | 9 | 1.0 | 9.0 | 0.00 | 0.00 | 0.00 | 45 | 1018.5 |
| 20260906180148 | 79 | 335 | 2.0 | 9.0 | 0.00 | 0.00 | 0.00 | 45 | 1018.6 |
| 20260906175944 | 79 | 348 | 3.0 | 9.0 | 0.00 | 0.00 | 0.00 | 45 | 1018.6 |
| 20260906175842 | 79 | 16 | 2.0 | 9.0 | 0.00 | 0.00 | 0.00 | 45 | 1018.5 |
| 20260906175720 | 78 | 5 | 2.0 | 9.0 | 0.00 | 0.00 | 0.00 | 46 | 1018.5 |
| 20260906175618 | 78 | 346 | 3.0 | 9.0 | 0.00 | 0.00 | 0.00 | 46 | 1018.6 |
| 20260906175525 | 78 | 309 | 4.0 | 9.0 | 0.00 | 0.00 | 0.00 | 46 | 1018.5 |
| 20260906175418 | 78 | 302 | 4.0 | 9.0 | 0.00 | 0.00 | 0.00 | 46 | 1018.6 |
| 20260906175326 | 78 | 346 | 4.0 | 8.0 | 0.00 | 0.00 | 0.00 | 46 | 1018.6 |
| 20260906175244 | 78 | 288 | 3.0 | 8.0 | 0.00 | 0.00 | 0.00 | 46 | 1018.6 |
| 20260906175129 | 78 | 282 | 4.0 | 8.0 | 0.00 | 0.00 | 0.00 | 45 | 1018.6 |
| 20260906175041 | 78 | 300 | 5.0 | 8.0 | 0.00 | 0.00 | 0.00 | 45 | 1018.7 |
| 20260906174923 | 78 | 274 | 3.0 | 8.0 | 0.00 | 0.00 | 0.00 | 45 | 1018.7 |
| 20260906174825 | 78 | 317 | 2.0 | 7.0 | 0.00 | 0.00 | 0.00 | 45 | 1018.8 |
| 20260906174734 | 78 | 194 | 2.0 | 7.0 | 0.00 | 0.00 | 0.00 | 45 | 1018.8 |
| 20260906174728 | 78 | 273 | 2.0 | 7.0 | 0.00 | 0.00 | 0.00 | 46 | 1018.8 |
| 20260906174626 | 78 | 196 | 3.0 | 8.0 | 0.00 | 0.00 | 0.00 | 46 | 1018.9 |
| 20260906174419 | 78 | 309 | 3.0 | 8.0 | 0.00 | 0.00 | 0.00 | 46 | 1018.9 |
| 20260906174334 | 78 | 290 | 2.0 | 8.0 | 0.00 | 0.00 | 0.00 | 46 | 1018.9 |
| 20260906174227 | 78 | 327 | 1.0 | 8.0 | 0.00 | 0.00 | 0.00 | 46 | 1019.0 |
| 20260906174143 | 78 | 318 | 2.0 | 8.0 | 0.00 | 0.00 | 0.00 | 46 | 1019.0 |
| 20260906174027 | 78 | 275 | 2.0 | 8.0 | 0.00 | 0.00 | 0.00 | 46 | 1019.0 |
| 20260906173933 | 78 | 246 | 3.0 | 8.0 | 0.00 | 0.00 | 0.00 | 46 | 1019.1 |
| 20260906173833 | 78 | 226 | 5.0 | 8.0 | 0.00 | 0.00 | 0.00 | 46 | 1019.0 |
| 20260906173733 | 78 | 294 | 4.0 | 8.0 | 0.00 | 0.00 | 0.00 | 46 | 1019.0 |
| 20260906173617 | 78 | 265 | 2.0 | 7.0 | 0.00 | 0.00 | 0.00 | 47 | 1019.0 |
| 20260906173521 | 78 | 225 | 2.0 | 7.0 | 0.00 | 0.00 | 0.00 | 46 | 1019.0 |
| 20260906173431 | 78 | 234 | 3.0 | 7.0 | 0.00 | 0.00 | 0.00 | 46 | 1019.1 |
| 20260906173343 | 78 | 245 | 4.0 | 7.0 | 0.00 | 0.00 | 0.00 | 46 | 1019.1 |
| 20260906173241 | 78 | 222 | 4.0 | 7.0 | 0.00 | 0.00 | 0.00 | 46 | 1019.1 |
| 20260906173229 | 79 | 239 | 4.0 | 7.0 | 0.00 | 0.00 | 0.00 | 46 | 1019.1 |
| 20260906173217 | 79 | 219 | 3.0 | 6.0 | 0.00 | 0.00 | 0.00 | 46 | 1019.1 |
| 20260906172918 | 79 | 225 | 2.0 | 5.0 | 0.00 | 0.00 | 0.00 | 46 | 1019.1 |
| 20260906172828 | 79 | 171 | 1.0 | 4.0 | 0.00 | 0.00 | 0.00 | 47 | 1019.3 |
| 20260906172743 | 79 | 260 | 1.0 | 4.0 | 0.00 | 0.00 | 0.00 | 47 | 1019.3 |
| 20260906172620 | 78 | 284 | 1.0 | 4.0 | 0.00 | 0.00 | 0.00 | 47 | 1019.3 |
| 20260906172529 | 78 | 335 | 1.0 | 4.0 | 0.00 | 0.00 | 0.00 | 47 | 1019.3 |
| 20260906172420 | 78 | 310 | 1.0 | 4.0 | 0.00 | 0.00 | 0.00 | 47 | 1019.3 |
| 20260906172334 | 78 | 5 | 1.0 | 6.0 | 0.00 | 0.00 | 0.00 | 47 | 1019.3 |
| 20260906172238 | 78 | 321 | 0.0 | 6.0 | 0.00 | 0.00 | 0.00 | 47 | 1019.3 |
| 20260906172131 | 78 | 20 | 0.0 | 6.0 | 0.00 | 0.00 | 0.00 | 48 | 1019.3 |
| 20260906172024 | 78 | 360 | 1.0 | 6.0 | 0.00 | 0.00 | 0.00 | 48 | 1019.4 |
| 20260906171924 | 78 | 352 | 2.0 | 6.0 | 0.00 | 0.00 | 0.00 | 48 | 1019.4 |
| 20260906171840 | 77 | 311 | 2.0 | 6.0 | 0.00 | 0.00 | 0.00 | 49 | 1019.3 |
| 20260906171750 | 77 | 291 | 2.0 | 6.0 | 0.00 | 0.00 | 0.00 | 48 | 1019.4 |
| 20260906171740 | 77 | 269 | 3.0 | 6.0 | 0.00 | 0.00 | 0.00 | 48 | 1019.5 |
| 20260906171724 | 77 | 278 | 2.0 | 6.0 | 0.00 | 0.00 | 0.00 | 48 | 1019.5 |
| 20260906171427 | 77 | 250 | 2.0 | 5.0 | 0.00 | 0.00 | 0.00 | 49 | 1019.5 |
| 20260906171341 | 77 | 348 | 3.0 | 5.0 | 0.00 | 0.00 | 0.00 | 48 | 1019.6 |
| 20260906171226 | 77 | 339 | 3.0 | 5.0 | 0.00 | 0.00 | 0.00 | 48 | 1019.5 |
| 20260906171118 | 77 | 296 | 3.0 | 5.0 | 0.00 | 0.00 | 0.00 | 49 | 1019.6 |
| 20260906171040 | 77 | 304 | 1.0 | 4.0 | 0.00 | 0.00 | 0.00 | 49 | 1019.6 |
| 20260906170942 | 77 | 23 | 1.0 | 4.0 | 0.00 | 0.00 | 0.00 | 49 | 1019.6 |
| 20260906170829 | 77 | 328 | 1.0 | 4.0 | 0.00 | 0.00 | 0.00 | 50 | 1019.6 |
| 20260906170743 | 77 | 327 | 1.0 | 4.0 | 0.00 | 0.00 | 0.00 | 50 | 1019.6 |
| 20260906170628 | 77 | 319 | 1.0 | 4.0 | 0.00 | 0.00 | 0.00 | 50 | 1019.7 |
| 20260906170524 | 77 | 298 | 0.0 | 4.0 | 0.00 | 0.00 | 0.00 | 50 | 1019.6 |
| 20260906170443 | 77 | 157 | 0.0 | 4.0 | 0.00 | 0.00 | 0.00 | 49 | 1019.6 |
| 20260906170337 | 76 | 155 | 1.0 | 4.0 | 0.00 | 0.00 | 0.00 | 49 | 1019.7 |
| 20260906170303 | 76 | 163 | 2.0 | 4.0 | 0.00 | 0.00 | 0.00 | 49 | 1019.6 |
| 20260906170257 | 76 | 177 | 2.0 | 4.0 | 0.00 | 0.00 | 0.00 | 50 | 1019.6 |
| 20260906170229 | 76 | 227 | 1.0 | 4.0 | 0.00 | 0.00 | 0.00 | 50 | 1019.8 |
| 20260906165928 | 76 | 200 | 1.0 | 4.0 | 0.00 | 0.00 | 0.00 | 50 | 1019.7 |
| 20260906165833 | 76 | 207 | 2.0 | 4.0 | 0.00 | 0.00 | 0.00 | 51 | 1019.8 |
| 20260906165726 | 76 | 259 | 1.0 | 3.0 | 0.00 | 0.00 | 0.00 | 51 | 1019.8 |
| 20260906165640 | 76 | 254 | 0.0 | 3.0 | 0.00 | 0.00 | 0.00 | 52 | 1019.8 |
| 20260906165540 | 76 | 265 | 1.0 | 3.0 | 0.00 | 0.00 | 0.00 | 52 | 1019.9 |
| 20260906165442 | 76 | 144 | 1.0 | 3.0 | 0.00 | 0.00 | 0.00 | 52 | 1019.9 |
| 20260906165318 | 75 | 277 | 1.0 | 4.0 | 0.00 | 0.00 | 0.00 | 53 | 1019.8 |
| 20260906165235 | 75 | 201 | 0.0 | 4.0 | 0.00 | 0.00 | 0.00 | 52 | 1019.8 |
| 20260906165127 | 75 | 298 | 1.0 | 4.0 | 0.00 | 0.00 | 0.00 | 52 | 1019.8 |
| 20260906165018 | 75 | 296 | 1.0 | 6.0 | 0.00 | 0.00 | 0.00 | 52 | 1019.9 |
| 20260906164920 | 75 | 248 | 1.0 | 6.0 | 0.00 | 0.00 | 0.00 | 53 | 1019.8 |
| 20260906164834 | 75 | 284 | 1.0 | 6.0 | 0.00 | 0.00 | 0.00 | 53 | 1020.0 |
| 20260906164739 | 75 | 276 | 1.0 | 6.0 | 0.00 | 0.00 | 0.00 | 52 | 1020.0 |
| 20260906164729 | 75 | 216 | 1.0 | 6.0 | 0.00 | 0.00 | 0.00 | 53 | 1020.1 |
| 20260906164718 | 75 | 254 | 1.0 | 6.0 | 0.00 | 0.00 | 0.00 | 53 | 1020.0 |
| 20260906164419 | 75 | 140 | 2.0 | 6.0 | 0.00 | 0.00 | 0.00 | 53 | 1020.0 |
| 20260906164324 | 75 | 155 | 3.0 | 6.0 | 0.00 | 0.00 | 0.00 | 53 | 1020.0 |
| 20260906164219 | 75 | 149 | 3.0 | 6.0 | 0.00 | 0.00 | 0.00 | 53 | 1020.1 |
| 20260906164119 | 75 | 162 | 1.0 | 6.0 | 0.00 | 0.00 | 0.00 | 53 | 1020.0 |
| 20260906164046 | 75 | 246 | 1.0 | 6.0 | 0.00 | 0.00 | 0.00 | 53 | 1020.1 |
| 20260906163940 | 75 | 219 | 1.0 | 6.0 | 0.00 | 0.00 | 0.00 | 54 | 1020.0 |
| 20260906163835 | 75 | 201 | 1.0 | 6.0 | 0.00 | 0.00 | 0.00 | 54 | 1020.0 |
| 20260906163734 | 74 | 180 | 1.0 | 6.0 | 0.00 | 0.00 | 0.00 | 54 | 1020.0 |
| 20260906163641 | 74 | 172 | 1.0 | 6.0 | 0.00 | 0.00 | 0.00 | 53 | 1019.9 |
| 20260906163523 | 74 | 193 | 2.0 | 6.0 | 0.00 | 0.00 | 0.00 | 53 | 1019.9 |
| 20260906163433 | 74 | 173 | 3.0 | 6.0 | 0.00 | 0.00 | 0.00 | 53 | 1019.8 |
| 20260906163325 | 74 | 163 | 2.0 | 6.0 | 0.00 | 0.00 | 0.00 | 53 | 1019.9 |
| 20260906163228 | 74 | 151 | 2.0 | 5.0 | 0.00 | 0.00 | 0.00 | 54 | 1020.0 |
| 20260906163224 | 74 | 185 | 2.0 | 5.0 | 0.00 | 0.00 | 0.00 | 54 | 1019.9 |
| 20260906163217 | 74 | 175 | 2.0 | 5.0 | 0.00 | 0.00 | 0.00 | 54 | 1019.9 |
| 20260906162939 | 74 | 169 | 2.0 | 5.0 | 0.00 | 0.00 | 0.00 | 53 | 1019.9 |
| 20260906162830 | 74 | 179 | 2.0 | 4.0 | 0.00 | 0.00 | 0.00 | 53 | 1019.9 |
| 20260906162725 | 74 | 171 | 0.0 | 4.0 | 0.00 | 0.00 | 0.00 | 54 | 1019.8 |
| 20260906162643 | 74 | 193 | 0.0 | 3.0 | 0.00 | 0.00 | 0.00 | 55 | 1019.8 |
| 20260906162530 | 74 | 196 | 0.0 | 4.0 | 0.00 | 0.00 | 0.00 | 55 | 1019.8 |
| 20260906162418 | 74 | 207 | 0.0 | 4.0 | 0.00 | 0.00 | 0.00 | 54 | 1019.8 |
| 20260906162342 | 74 | 225 | 0.0 | 4.0 | 0.00 | 0.00 | 0.00 | 54 | 1019.8 |
| 20260906162218 | 73 | 224 | 0.0 | 6.0 | 0.00 | 0.00 | 0.00 | 55 | 1019.8 |
| 20260906162144 | 73 | 194 | 1.0 | 6.0 | 0.00 | 0.00 | 0.00 | 55 | 1019.8 |
| 20260906162030 | 73 | 210 | 1.0 | 6.0 | 0.00 | 0.00 | 0.00 | 55 | 1019.8 |
| 20260906161943 | 73 | 208 | 2.0 | 7.0 | 0.00 | 0.00 | 0.00 | 54 | 1019.8 |
| 20260906161833 | 73 | 234 | 2.0 | 8.0 | 0.00 | 0.00 | 0.00 | 54 | 1019.7 |
| 20260906161743 | 73 | 225 | 2.0 | 8.0 | 0.00 | 0.00 | 0.00 | 55 | 1019.8 |
| 20260906161729 | 73 | 246 | 2.0 | 8.0 | 0.00 | 0.00 | 0.00 | 55 | 1019.8 |
| 20260906161719 | 73 | 274 | 3.0 | 8.0 | 0.00 | 0.00 | 0.00 | 55 | 1019.7 |
| 20260906161424 | 73 | 252 | 3.0 | 8.0 | 0.00 | 0.00 | 0.00 | 56 | 1019.8 |
| 20260906161335 | 73 | 247 | 3.0 | 8.0 | 0.00 | 0.00 | 0.00 | 56 | 1019.8 |
| 20260906161236 | 73 | 281 | 5.0 | 8.0 | 0.00 | 0.00 | 0.00 | 55 | 1019.8 |
| 20260906161125 | 74 | 286 | 5.0 | 8.0 | 0.00 | 0.00 | 0.00 | 55 | 1019.8 |
| 20260906161032 | 74 | 273 | 3.0 | 8.0 | 0.00 | 0.00 | 0.00 | 57 | 1019.8 |
| 20260906160935 | 74 | 315 | 2.0 | 6.0 | 0.00 | 0.00 | 0.00 | 56 | 1019.8 |
| 20260906160837 | 74 | 338 | 3.0 | 6.0 | 0.00 | 0.00 | 0.00 | 57 | 1019.8 |
| 20260906160717 | 74 | 288 | 3.0 | 6.0 | 0.00 | 0.00 | 0.00 | 57 | 1019.8 |
| 20260906160635 | 74 | 259 | 1.0 | 6.0 | 0.00 | 0.00 | 0.00 | 57 | 1019.8 |
| 20260906160525 | 74 | 311 | 1.0 | 4.0 | 0.00 | 0.00 | 0.00 | 57 | 1019.8 |
| 20260906160436 | 74 | 277 | 2.0 | 4.0 | 0.00 | 0.00 | 0.00 | 57 | 1019.8 |
| 20260906160331 | 73 | 339 | 1.0 | 4.0 | 0.00 | 0.00 | 0.00 | 58 | 1019.8 |
| 20260906160301 | 73 | 5 | 1.0 | 4.0 | 0.00 | 0.00 | 0.00 | 59 | 1019.8 |
| 20260906160253 | 73 | 317 | 1.0 | 4.0 | 0.00 | 0.00 | 0.00 | 59 | 1019.8 |
| 20260906160230 | 73 | 352 | 1.0 | 3.0 | 0.00 | 0.00 | 0.00 | 59 | 1019.7 |
| 20260906155924 | 73 | 303 | 1.0 | 3.0 | 0.00 | 0.00 | 0.00 | 60 | 1019.8 |
| 20260906155840 | 73 | 295 | 1.0 | 5.0 | 0.00 | 0.00 | 0.00 | 59 | 1019.7 |
| 20260906155741 | 73 | 271 | 1.0 | 5.0 | 0.00 | 0.00 | 0.00 | 59 | 1019.8 |
| 20260906155624 | 73 | 331 | 0.0 | 5.0 | 0.00 | 0.00 | 0.00 | 60 | 1019.8 |
| 20260906155535 | 72 | 202 | 0.0 | 5.0 | 0.00 | 0.00 | 0.00 | 60 | 1019.8 |
| 20260906155418 | 72 | 189 | 0.0 | 5.0 | 0.00 | 0.00 | 0.00 | 60 | 1019.8 |
| 20260906155342 | 72 | 181 | 1.0 | 5.0 | 0.00 | 0.00 | 0.00 | 60 | 1019.8 |
| 20260906155225 | 72 | 263 | 1.0 | 5.0 | 0.00 | 0.00 | 0.00 | 60 | 1019.8 |
| 20260906155118 | 72 | 210 | 3.0 | 5.0 | 0.00 | 0.00 | 0.00 | 59 | 1019.8 |
| 20260906155025 | 72 | 257 | 3.0 | 6.0 | 0.00 | 0.00 | 0.00 | 59 | 1019.7 |
| 20260906154940 | 72 | 284 | 3.0 | 6.0 | 0.00 | 0.00 | 0.00 | 60 | 1019.7 |
| 20260906154835 | 72 | 288 | 2.0 | 6.0 | 0.00 | 0.00 | 0.00 | 61 | 1019.7 |
| 20260906154728 | 72 | 347 | 1.0 | 6.0 | 0.00 | 0.00 | 0.00 | 61 | 1019.6 |
| 20260906154720 | 72 | 355 | 1.0 | 6.0 | 0.00 | 0.00 | 0.00 | 61 | 1019.6 |
| 20260906154622 | 72 | 360 | 2.0 | 6.0 | 0.00 | 0.00 | 0.00 | 62 | 1019.5 |
| 20260906154444 | 72 | 333 | 3.0 | 6.0 | 0.00 | 0.00 | 0.00 | 62 | 1019.6 |
| 20260906154328 | 72 | 331 | 4.0 | 6.0 | 0.00 | 0.00 | 0.00 | 62 | 1019.5 |
| 20260906154229 | 71 | 313 | 3.0 | 6.0 | 0.00 | 0.00 | 0.00 | 63 | 1019.5 |
| 20260906154124 | 71 | 329 | 2.0 | 5.0 | 0.00 | 0.00 | 0.00 | 63 | 1019.5 |
| 20260906154040 | 71 | 330 | 3.0 | 5.0 | 0.00 | 0.00 | 0.00 | 63 | 1019.7 |
| 20260906153926 | 71 | 321 | 1.0 | 5.0 | 0.00 | 0.00 | 0.00 | 63 | 1019.8 |
| 20260906153834 | 71 | 251 | 0.0 | 5.0 | 0.00 | 0.00 | 0.00 | 63 | 1019.9 |
| 20260906153736 | 71 | 351 | 0.0 | 5.0 | 0.00 | 0.00 | 0.00 | 63 | 1019.8 |
| 20260906153642 | 71 | 352 | 1.0 | 5.0 | 0.00 | 0.00 | 0.00 | 64 | 1019.8 |
| 20260906153527 | 71 | 338 | 2.0 | 5.0 | 0.00 | 0.00 | 0.00 | 64 | 1019.8 |
| 20260906153417 | 71 | 340 | 1.0 | 4.0 | 0.00 | 0.00 | 0.00 | 64 | 1019.8 |
| 20260906153327 | 71 | 171 | 0.0 | 4.0 | 0.00 | 0.00 | 0.00 | 64 | 1019.8 |
| 20260906153225 | 71 | 134 | 0.0 | 5.0 | 0.00 | 0.00 | 0.00 | 63 | 1019.8 |
| 20260906153221 | 71 | 119 | 0.0 | 5.0 | 0.00 | 0.00 | 0.00 | 64 | 1019.9 |
| 20260906153215 | 70 | 75 | 0.0 | 5.0 | 0.00 | 0.00 | 0.00 | 64 | 1019.8 |
| 20260906152931 | 70 | 269 | 0.0 | 5.0 | 0.00 | 0.00 | 0.00 | 64 | 1019.8 |
| 20260906152818 | 70 | 258 | 1.0 | 5.0 | 0.00 | 0.00 | 0.00 | 64 | 1019.8 |
| 20260906152719 | 70 | 305 | 2.0 | 5.0 | 0.00 | 0.00 | 0.00 | 65 | 1019.8 |
| 20260906152634 | 70 | 233 | 2.0 | 5.0 | 0.00 | 0.00 | 0.00 | 65 | 1019.8 |
| 20260906152532 | 70 | 253 | 2.0 | 5.0 | 0.00 | 0.00 | 0.00 | 65 | 1019.8 |
| 20260906152441 | 70 | 276 | 2.0 | 5.0 | 0.00 | 0.00 | 0.00 | 65 | 1019.8 |
| 20260906152338 | 70 | 282 | 2.0 | 4.0 | 0.00 | 0.00 | 0.00 | 65 | 1019.8 |
| 20260906152219 | 70 | 190 | 2.0 | 5.0 | 0.00 | 0.00 | 0.00 | 65 | 1019.9 |
| 20260906152118 | 70 | 197 | 2.0 | 5.0 | 0.00 | 0.00 | 0.00 | 65 | 1019.8 |
| 20260906152031 | 70 | 166 | 3.0 | 5.0 | 0.00 | 0.00 | 0.00 | 65 | 1019.9 |
| 20260906151933 | 70 | 153 | 2.0 | 5.0 | 0.00 | 0.00 | 0.00 | 65 | 1019.9 |
| 20260906151818 | 70 | 146 | 2.0 | 5.0 | 0.00 | 0.00 | 0.00 | 65 | 1020.0 |
| 20260906151718 | 70 | 171 | 2.0 | 5.0 | 0.00 | 0.00 | 0.00 | 65 | 1019.9 |
| 20260906151610 | 70 | 164 | 0.0 | 4.0 | 0.00 | 0.00 | 0.00 | 65 | 1020.0 |
| 20260906151439 | 69 | 255 | 0.0 | 6.0 | 0.00 | 0.00 | 0.00 | 65 | 1020.1 |
| 20260906151320 | 69 | 243 | 1.0 | 7.0 | 0.00 | 0.00 | 0.00 | 66 | 1020.0 |
| 20260906151246 | 69 | 216 | 2.0 | 7.0 | 0.00 | 0.00 | 0.00 | 66 | 1020.1 |
| 20260906151137 | 69 | 290 | 2.0 | 7.0 | 0.00 | 0.00 | 0.00 | 66 | 1020.2 |
| 20260906151041 | 69 | 213 | 2.0 | 7.0 | 0.00 | 0.00 | 0.00 | 66 | 1020.1 |
| 20260906150924 | 69 | 184 | 3.0 | 7.0 | 0.00 | 0.00 | 0.00 | 66 | 1020.1 |
| 20260906150843 | 69 | 165 | 3.0 | 7.0 | 0.00 | 0.00 | 0.00 | 66 | 1020.1 |
| 20260906150720 | 69 | 154 | 4.0 | 7.0 | 0.00 | 0.00 | 0.00 | 65 | 1020.2 |
| 20260906150625 | 69 | 152 | 4.0 | 7.0 | 0.00 | 0.00 | 0.00 | 66 | 1020.2 |
| 20260906150546 | 69 | 149 | 3.0 | 7.0 | 0.00 | 0.00 | 0.00 | 65 | 1020.1 |
| 20260906150421 | 69 | 165 | 1.0 | 6.0 | 0.00 | 0.00 | 0.00 | 66 | 1020.1 |
| 20260906150327 | 69 | 133 | 0.0 | 5.0 | 0.00 | 0.00 | 0.00 | 66 | 1020.0 |
| 20260906150257 | 69 | 352 | 0.0 | 5.0 | 0.00 | 0.00 | 0.00 | 66 | 1020.0 |
| 20260906150254 | 69 | 335 | 1.0 | 5.0 | 0.00 | 0.00 | 0.00 | 67 | 1020.0 |
| 20260906150232 | 69 | 316 | 2.0 | 7.0 | 0.00 | 0.00 | 0.00 | 66 | 1020.1 |
| 20260906145917 | 69 | 258 | 2.0 | 7.0 | 0.00 | 0.00 | 0.00 | 67 | 1020.1 |
| 20260906145833 | 69 | 290 | 1.0 | 8.0 | 0.00 | 0.00 | 0.00 | 67 | 1020.0 |
| 20260906145731 | 69 | 319 | 2.0 | 8.0 | 0.00 | 0.00 | 0.00 | 67 | 1019.9 |
| 20260906145643 | 69 | 270 | 2.0 | 8.0 | 0.00 | 0.00 | 0.00 | 67 | 1020.0 |
| 20260906145526 | 68 | 286 | 2.0 | 8.0 | 0.00 | 0.00 | 0.00 | 67 | 1020.0 |
| 20260906145429 | 68 | 248 | 2.0 | 8.0 | 0.00 | 0.00 | 0.00 | 67 | 1020.0 |
| 20260906145332 | 68 | 273 | 3.0 | 8.0 | 0.00 | 0.00 | 0.00 | 67 | 1020.0 |
| 20260906145236 | 68 | 145 | 5.0 | 8.0 | 0.00 | 0.00 | 0.00 | 67 | 1020.0 |
| 20260906145134 | 68 | 153 | 5.0 | 8.0 | 0.00 | 0.00 | 0.00 | 67 | 1020.0 |
| 20260906145031 | 68 | 158 | 5.0 | 8.0 | 0.00 | 0.00 | 0.00 | 67 | 1020.0 |
| 20260906144932 | 68 | 145 | 5.0 | 8.0 | 0.00 | 0.00 | 0.00 | 67 | 1020.1 |
| 20260906144840 | 69 | 163 | 4.0 | 8.0 | 0.00 | 0.00 | 0.00 | 67 | 1020.1 |
| 20260906144727 | 68 | 178 | 3.0 | 6.0 | 0.00 | 0.00 | 0.00 | 67 | 1020.1 |
| 20260906144718 | 68 | 152 | 4.0 | 6.0 | 0.00 | 0.00 | 0.00 | 67 | 1020.0 |
| 20260906144701 | 68 | 159 | 3.0 | 6.0 | 0.00 | 0.00 | 0.00 | 67 | 1020.0 |
| 20260906144444 | 68 | 163 | 2.0 | 5.0 | 0.00 | 0.00 | 0.00 | 67 | 1020.0 |
| 20260906144324 | 68 | 176 | 2.0 | 4.0 | 0.00 | 0.00 | 0.00 | 68 | 1019.9 |
| 20260906144233 | 68 | 209 | 2.0 | 4.0 | 0.00 | 0.00 | 0.00 | 68 | 1019.9 |
| 20260906144117 | 68 | 182 | 2.0 | 4.0 | 0.00 | 0.00 | 0.00 | 68 | 1019.9 |
| 20260906144035 | 68 | 161 | 2.0 | 5.0 | 0.00 | 0.00 | 0.00 | 68 | 1019.8 |
| 20260906143919 | 68 | 163 | 2.0 | 7.0 | 0.00 | 0.00 | 0.00 | 68 | 1019.8 |
| 20260906143841 | 68 | 240 | 2.0 | 7.0 | 0.00 | 0.00 | 0.00 | 68 | 1019.9 |
| 20260906143728 | 68 | 153 | 2.0 | 7.0 | 0.00 | 0.00 | 0.00 | 68 | 1019.8 |
| 20260906143625 | 68 | 148 | 2.0 | 7.0 | 0.00 | 0.00 | 0.00 | 68 | 1020.0 |
| 20260906143533 | 68 | 171 | 1.0 | 7.0 | 0.00 | 0.00 | 0.00 | 68 | 1019.8 |
| 20260906143436 | 68 | 145 | 2.0 | 7.0 | 0.00 | 0.00 | 0.00 | 68 | 1019.9 |
| 20260906143336 | 68 | 144 | 3.0 | 7.0 | 0.00 | 0.00 | 0.00 | 68 | 1019.9 |
| 20260906143224 | 68 | 153 | 4.0 | 7.0 | 0.00 | 0.00 | 0.00 | 67 | 1019.9 |
| 20260906143219 | 68 | 153 | 5.0 | 8.0 | 0.00 | 0.00 | 0.00 | 68 | 1019.9 |
| 20260906143125 | 68 | 158 | 3.0 | 6.0 | 0.00 | 0.00 | 0.00 | 68 | 1020.0 |
| 20260906142944 | 68 | 162 | 1.0 | 6.0 | 0.00 | 0.00 | 0.00 | 67 | 1020.0 |
| 20260906142843 | 68 | 96 | 2.0 | 4.0 | 0.00 | 0.00 | 0.00 | 67 | 1020.0 |
| 20260906142742 | 68 | 94 | 2.0 | 5.0 | 0.00 | 0.00 | 0.00 | 67 | 1019.9 |
| 20260906142640 | 67 | 110 | 1.0 | 5.0 | 0.00 | 0.00 | 0.00 | 67 | 1020.0 |
| 20260906142530 | 67 | 193 | 0.0 | 5.0 | 0.00 | 0.00 | 0.00 | 67 | 1020.0 |
| 20260906142440 | 67 | 223 | 0.0 | 5.0 | 0.00 | 0.00 | 0.00 | 67 | 1020.1 |
| 20260906142344 | 67 | 182 | 0.0 | 5.0 | 0.00 | 0.00 | 0.00 | 67 | 1020.0 |
| 20260906142225 | 67 | 158 | 0.0 | 5.0 | 0.00 | 0.00 | 0.00 | 67 | 1020.1 |
| 20260906142118 | 67 | 150 | 0.0 | 5.0 | 0.00 | 0.00 | 0.00 | 67 | 1020.1 |
| 20260906142026 | 67 | 191 | 2.0 | 5.0 | 0.00 | 0.00 | 0.00 | 67 | 1019.9 |
| 20260906141931 | 67 | 144 | 4.0 | 5.0 | 0.00 | 0.00 | 0.00 | 67 | 1020.1 |
| 20260906141844 | 67 | 148 | 3.0 | 6.0 | 0.00 | 0.00 | 0.00 | 68 | 1020.0 |
| 20260906141721 | 67 | 166 | 1.0 | 8.0 | 0.00 | 0.00 | 0.00 | 68 | 1020.0 |
| 20260906141716 | 67 | 176 | 1.0 | 8.0 | 0.00 | 0.00 | 0.00 | 68 | 1020.0 |
| 20260906141705 | 67 | 105 | 1.0 | 8.0 | 0.00 | 0.00 | 0.00 | 68 | 1020.0 |
| 20260906141429 | 67 | 117 | 0.0 | 8.0 | 0.00 | 0.00 | 0.00 | 68 | 1020.1 |
| 20260906141326 | 67 | 144 | 1.0 | 8.0 | 0.00 | 0.00 | 0.00 | 68 | 1020.1 |
| 20260906141224 | 67 | 182 | 1.0 | 8.0 | 0.00 | 0.00 | 0.00 | 68 | 1020.1 |
| 20260906141140 | 67 | 144 | 2.0 | 8.0 | 0.00 | 0.00 | 0.00 | 69 | 1020.0 |
| 20260906141038 | 67 | 163 | 4.0 | 8.0 | 0.00 | 0.00 | 0.00 | 69 | 1020.0 |
| 20260906140921 | 67 | 140 | 5.0 | 8.0 | 0.00 | 0.00 | 0.00 | 69 | 1020.0 |
| 20260906140818 | 67 | 143 | 5.0 | 8.0 | 0.00 | 0.00 | 0.00 | 69 | 1020.0 |
| 20260906140732 | 67 | 155 | 5.0 | 8.0 | 0.00 | 0.00 | 0.00 | 69 | 1019.9 |
| 20260906140644 | 67 | 163 | 5.0 | 8.0 | 0.00 | 0.00 | 0.00 | 69 | 1019.9 |
| 20260906140526 | 67 | 171 | 5.0 | 8.0 | 0.00 | 0.00 | 0.00 | 69 | 1019.8 |
| 20260906140417 | 67 | 154 | 5.0 | 8.0 | 0.00 | 0.00 | 0.00 | 69 | 1019.8 |
| 20260906140339 | 67 | 161 | 3.0 | 6.0 | 0.00 | 0.00 | 0.00 | 70 | 1019.8 |
| 20260906140229 | 67 | 196 | 1.0 | 7.0 | 0.00 | 0.00 | 0.00 | 70 | 1019.9 |
| 20260906140224 | 67 | 182 | 2.0 | 7.0 | 0.00 | 0.00 | 0.00 | 69 | 1019.8 |
| 20260906140202 | 67 | 175 | 4.0 | 7.0 | 0.00 | 0.00 | 0.00 | 69 | 1019.8 |
| 20260906135942 | 67 | 163 | 3.0 | 7.0 | 0.00 | 0.00 | 0.00 | 69 | 1019.8 |
| 20260906135838 | 67 | 171 | 1.0 | 7.0 | 0.00 | 0.00 | 0.00 | 70 | 1019.9 |
| 20260906135719 | 67 | 134 | 2.0 | 6.0 | 0.00 | 0.00 | 0.00 | 71 | 1020.0 |
| 20260906135643 | 67 | 93 | 2.0 | 6.0 | 0.00 | 0.00 | 0.00 | 71 | 1020.0 |
| 20260906135519 | 66 | 96 | 2.0 | 6.0 | 0.00 | 0.00 | 0.00 | 71 | 1020.0 |
| 20260906135421 | 66 | 92 | 2.0 | 6.0 | 0.00 | 0.00 | 0.00 | 71 | 1020.1 |
| 20260906135342 | 66 | 80 | 2.0 | 6.0 | 0.00 | 0.00 | 0.00 | 71 | 1020.0 |
| 20260906135230 | 66 | 109 | 1.0 | 4.0 | 0.00 | 0.00 | 0.00 | 71 | 1020.0 |
| 20260906135133 | 66 | 163 | 1.0 | 5.0 | 0.00 | 0.00 | 0.00 | 72 | 1019.9 |
| 20260906135039 | 66 | 141 | 0.0 | 6.0 | 0.00 | 0.00 | 0.00 | 72 | 1020.0 |
| 20260906134917 | 66 | 163 | 1.0 | 6.0 | 0.00 | 0.00 | 0.00 | 72 | 1020.1 |
| 20260906134828 | 66 | 198 | 1.0 | 6.0 | 0.00 | 0.00 | 0.00 | 72 | 1019.9 |
| 20260906134719 | 66 | 207 | 1.0 | 6.0 | 0.00 | 0.00 | 0.00 | 73 | 1020.0 |
| 20260906134717 | 66 | 159 | 1.0 | 6.0 | 0.00 | 0.00 | 0.00 | 73 | 1019.9 |
| 20260906134652 | 66 | 180 | 2.0 | 6.0 | 0.00 | 0.00 | 0.00 | 73 | 1019.9 |
| 20260906134432 | 66 | 141 | 3.0 | 7.0 | 0.00 | 0.00 | 0.00 | 73 | 1019.9 |
| 20260906134342 | 66 | 161 | 4.0 | 7.0 | 0.00 | 0.00 | 0.00 | 73 | 1019.9 |
| 20260906134243 | 66 | 152 | 3.0 | 7.0 | 0.00 | 0.00 | 0.00 | 74 | 1019.9 |
| 20260906134141 | 66 | 172 | 3.0 | 7.0 | 0.00 | 0.00 | 0.00 | 74 | 1019.8 |
| 20260906134041 | 66 | 151 | 2.0 | 7.0 | 0.00 | 0.00 | 0.00 | 74 | 1019.9 |
| 20260906133940 | 66 | 169 | 3.0 | 7.0 | 0.00 | 0.00 | 0.00 | 74 | 1019.8 |
| 20260906133830 | 66 | 176 | 4.0 | 7.0 | 0.00 | 0.00 | 0.00 | 74 | 1019.8 |
| 20260906133733 | 66 | 155 | 5.0 | 7.0 | 0.00 | 0.00 | 0.00 | 74 | 1019.8 |
| 20260906133617 | 66 | 164 | 5.0 | 7.0 | 0.00 | 0.00 | 0.00 | 74 | 1019.9 |
| 20260906133536 | 66 | 167 | 4.0 | 6.0 | 0.00 | 0.00 | 0.00 | 74 | 1019.8 |
| 20260906133429 | 66 | 184 | 4.0 | 4.0 | 0.00 | 0.00 | 0.00 | 73 | 1019.8 |
| 20260906133325 | 66 | 163 | 3.0 | 5.0 | 0.00 | 0.00 | 0.00 | 74 | 1019.8 |
| 20260906133228 | 66 | 149 | 3.0 | 7.0 | 0.00 | 0.00 | 0.00 | 74 | 1019.8 |
| 20260906133158 | 66 | 155 | 2.0 | 7.0 | 0.00 | 0.00 | 0.00 | 74 | 1019.7 |
| 20260906133147 | 66 | 186 | 0.0 | 7.0 | 0.00 | 0.00 | 0.00 | 74 | 1019.8 |
| 20260906132939 | 66 | 193 | 0.0 | 7.0 | 0.00 | 0.00 | 0.00 | 74 | 1019.7 |
| 20260906132826 | 66 | 161 | 0.0 | 7.0 | 0.00 | 0.00 | 0.00 | 74 | 1019.7 |
| 20260906132735 | 65 | 140 | 1.0 | 7.0 | 0.00 | 0.00 | 0.00 | 74 | 1019.7 |
| 20260906132628 | 65 | 159 | 2.0 | 7.0 | 0.00 | 0.00 | 0.00 | 74 | 1019.7 |
| 20260906132541 | 65 | 166 | 3.0 | 7.0 | 0.00 | 0.00 | 0.00 | 74 | 1019.6 |
| 20260906132434 | 65 | 165 | 5.0 | 7.0 | 0.00 | 0.00 | 0.00 | 74 | 1019.7 |
| 20260906132331 | 65 | 166 | 5.0 | 7.0 | 0.00 | 0.00 | 0.00 | 74 | 1019.6 |
| 20260906132228 | 65 | 160 | 6.0 | 7.0 | 0.00 | 0.00 | 0.00 | 74 | 1019.7 |
| 20260906132124 | 65 | 173 | 6.0 | 8.0 | 0.00 | 0.00 | 0.00 | 74 | 1019.7 |
| 20260906132042 | 66 | 165 | 4.0 | 9.0 | 0.00 | 0.00 | 0.00 | 74 | 1019.8 |
| 20260906131925 | 65 | 160 | 2.0 | 6.0 | 0.00 | 0.00 | 0.00 | 74 | 1019.6 |
| 20260906131838 | 65 | 248 | 2.0 | 4.0 | 0.00 | 0.00 | 0.00 | 74 | 1019.7 |
| 20260906131717 | 65 | 234 | 1.0 | 5.0 | 0.00 | 0.00 | 0.00 | 74 | 1019.6 |
| 20260906131715 | 65 | 198 | 1.0 | 5.0 | 0.00 | 0.00 | 0.00 | 74 | 1019.7 |
| 20260906131654 | 65 | 213 | 1.0 | 5.0 | 0.00 | 0.00 | 0.00 | 74 | 1019.7 |
| 20260906131435 | 65 | 212 | 1.0 | 5.0 | 0.00 | 0.00 | 0.00 | 74 | 1019.7 |
| 20260906131343 | 65 | 264 | 2.0 | 6.0 | 0.00 | 0.00 | 0.00 | 74 | 1019.6 |
| 20260906131232 | 66 | 253 | 1.0 | 6.0 | 0.00 | 0.00 | 0.00 | 74 | 1019.7 |
| 20260906131138 | 65 | 265 | 1.0 | 6.0 | 0.00 | 0.00 | 0.00 | 74 | 1019.6 |
| 20260906131032 | 65 | 156 | 2.0 | 6.0 | 0.00 | 0.00 | 0.00 | 74 | 1019.6 |
| 20260906130936 | 65 | 161 | 2.0 | 8.0 | 0.00 | 0.00 | 0.00 | 74 | 1019.6 |
| 20260906130829 | 65 | 232 | 2.0 | 8.0 | 0.00 | 0.00 | 0.00 | 74 | 1019.6 |
| 20260906130745 | 65 | 175 | 2.0 | 8.0 | 0.00 | 0.00 | 0.00 | 74 | 1019.6 |
| 20260906130621 | 65 | 192 | 2.0 | 8.0 | 0.00 | 0.00 | 0.00 | 74 | 1019.6 |
| 20260906130523 | 65 | 146 | 3.0 | 8.0 | 0.00 | 0.00 | 0.00 | 74 | 1019.6 |
| 20260906130427 | 65 | 190 | 3.0 | 8.0 | 0.00 | 0.00 | 0.00 | 74 | 1019.6 |
| 20260906130327 | 65 | 222 | 3.0 | 8.0 | 0.00 | 0.00 | 0.00 | 74 | 1019.6 |
| 20260906130234 | 65 | 229 | 3.0 | 8.0 | 0.00 | 0.00 | 0.00 | 74 | 1019.6 |
| 20260906130224 | 65 | 232 | 3.0 | 8.0 | 0.00 | 0.00 | 0.00 | 74 | 1019.5 |
| 20260906130218 | 65 | 271 | 4.0 | 8.0 | 0.00 | 0.00 | 0.00 | 74 | 1019.4 |
| 20260906125928 | 65 | 222 | 4.0 | 8.0 | 0.00 | 0.00 | 0.00 | 74 | 1019.5 |
| 20260906125840 | 65 | 223 | 4.0 | 8.0 | 0.00 | 0.00 | 0.00 | 74 | 1019.5 |
| 20260906125720 | 65 | 162 | 5.0 | 8.0 | 0.00 | 0.00 | 0.00 | 74 | 1019.4 |
| 20260906125642 | 65 | 200 | 6.0 | 9.0 | 0.00 | 0.00 | 0.00 | 74 | 1019.4 |
| 20260906125542 | 65 | 171 | 5.0 | 8.0 | 0.00 | 0.00 | 0.00 | 74 | 1019.4 |
| 20260906125437 | 65 | 179 | 4.0 | 7.0 | 0.00 | 0.00 | 0.00 | 74 | 1019.5 |
| 20260906125341 | 65 | 165 | 3.0 | 7.0 | 0.00 | 0.00 | 0.00 | 74 | 1019.4 |
| 20260906125241 | 65 | 161 | 2.0 | 7.0 | 0.00 | 0.00 | 0.00 | 74 | 1019.4 |
| 20260906125120 | 65 | 229 | 1.0 | 4.0 | 0.00 | 0.00 | 0.00 | 74 | 1019.5 |
| 20260906125042 | 65 | 173 | 1.0 | 4.0 | 0.00 | 0.00 | 0.00 | 74 | 1019.4 |
| 20260906124936 | 65 | 174 | 2.0 | 5.0 | 0.00 | 0.00 | 0.00 | 74 | 1019.4 |
| 20260906124818 | 65 | 207 | 3.0 | 5.0 | 0.00 | 0.00 | 0.00 | 74 | 1019.3 |
| 20260906124724 | 65 | 222 | 3.0 | 5.0 | 0.00 | 0.00 | 0.00 | 74 | 1019.3 |
| 20260906124702 | 65 | 157 | 2.0 | 5.0 | 0.00 | 0.00 | 0.00 | 74 | 1019.4 |
| 20260906124655 | 65 | 186 | 3.0 | 6.0 | 0.00 | 0.00 | 0.00 | 74 | 1019.3 |
| 20260906124418 | 65 | 191 | 3.0 | 6.0 | 0.00 | 0.00 | 0.00 | 74 | 1019.3 |
| 20260906124329 | 65 | 217 | 3.0 | 6.0 | 0.00 | 0.00 | 0.00 | 74 | 1019.3 |
| 20260906124227 | 65 | 259 | 2.0 | 7.0 | 0.00 | 0.00 | 0.00 | 74 | 1019.4 |
| 20260906124129 | 65 | 202 | 2.0 | 7.0 | 0.00 | 0.00 | 0.00 | 74 | 1019.3 |
| 20260906124021 | 65 | 281 | 2.0 | 7.0 | 0.00 | 0.00 | 0.00 | 74 | 1019.4 |
| 20260906123926 | 65 | 243 | 3.0 | 7.0 | 0.00 | 0.00 | 0.00 | 73 | 1019.3 |
| 20260906123843 | 65 | 178 | 3.0 | 7.0 | 0.00 | 0.00 | 0.00 | 73 | 1019.3 |
| 20260906123734 | 65 | 196 | 3.0 | 7.0 | 0.00 | 0.00 | 0.00 | 73 | 1019.3 |
| 20260906123640 | 65 | 234 | 4.0 | 7.0 | 0.00 | 0.00 | 0.00 | 73 | 1019.3 |
| 20260906123527 | 65 | 224 | 4.0 | 7.0 | 0.00 | 0.00 | 0.00 | 73 | 1019.3 |
| 20260906123434 | 65 | 228 | 3.0 | 7.0 | 0.00 | 0.00 | 0.00 | 73 | 1019.4 |
| 20260906123333 | 65 | 202 | 2.0 | 8.0 | 0.00 | 0.00 | 0.00 | 73 | 1019.3 |
| 20260906123218 | 65 | 257 | 2.0 | 8.0 | 0.00 | 0.00 | 0.00 | 73 | 1019.4 |
| 20260906123156 | 66 | 261 | 4.0 | 8.0 | 0.00 | 0.00 | 0.00 | 73 | 1019.4 |
| 20260906122924 | 66 | 277 | 3.0 | 8.0 | 0.00 | 0.00 | 0.00 | 73 | 1019.5 |
| 20260906122825 | 66 | 201 | 2.0 | 5.0 | 0.00 | 0.00 | 0.00 | 73 | 1019.3 |
| 20260906122724 | 66 | 306 | 2.0 | 5.0 | 0.00 | 0.00 | 0.00 | 72 | 1019.5 |
| 20260906122642 | 66 | 245 | 2.0 | 5.0 | 0.00 | 0.00 | 0.00 | 72 | 1019.4 |
| 20260906122519 | 66 | 260 | 2.0 | 5.0 | 0.00 | 0.00 | 0.00 | 72 | 1019.4 |
| 20260906122435 | 66 | 254 | 2.0 | 5.0 | 0.00 | 0.00 | 0.00 | 72 | 1019.4 |
| 20260906122324 | 66 | 209 | 2.0 | 5.0 | 0.00 | 0.00 | 0.00 | 72 | 1019.4 |
| 20260906122232 | 66 | 205 | 2.0 | 5.0 | 0.00 | 0.00 | 0.00 | 72 | 1019.3 |
| 20260906122130 | 66 | 215 | 3.0 | 6.0 | 0.00 | 0.00 | 0.00 | 72 | 1019.3 |
| 20260906122020 | 66 | 237 | 2.0 | 6.0 | 0.00 | 0.00 | 0.00 | 72 | 1019.4 |
| 20260906121925 | 66 | 219 | 2.0 | 6.0 | 0.00 | 0.00 | 0.00 | 72 | 1019.3 |
| 20260906121834 | 66 | 210 | 2.0 | 6.0 | 0.00 | 0.00 | 0.00 | 72 | 1019.3 |
| 20260906121729 | 66 | 237 | 3.0 | 6.0 | 0.00 | 0.00 | 0.00 | 72 | 1019.3 |
| 20260906121702 | 66 | 161 | 2.0 | 6.0 | 0.00 | 0.00 | 0.00 | 72 | 1019.3 |
| 20260906121632 | 66 | 168 | 2.0 | 6.0 | 0.00 | 0.00 | 0.00 | 72 | 1019.3 |
| 20260906121430 | 66 | 203 | 3.0 | 6.0 | 0.00 | 0.00 | 0.00 | 73 | 1019.3 |
| 20260906121340 | 66 | 193 | 3.0 | 6.0 | 0.00 | 0.00 | 0.00 | 72 | 1019.3 |
| 20260906121241 | 66 | 209 | 3.0 | 6.0 | 0.00 | 0.00 | 0.00 | 73 | 1019.3 |
| 20260906121121 | 66 | 205 | 3.0 | 8.0 | 0.00 | 0.00 | 0.00 | 72 | 1019.3 |
| 20260906121047 | 66 | 221 | 3.0 | 8.0 | 0.00 | 0.00 | 0.00 | 73 | 1019.3 |
| 20260906120919 | 66 | 238 | 2.0 | 8.0 | 0.00 | 0.00 | 0.00 | 72 | 1019.3 |
| 20260906120833 | 66 | 236 | 2.0 | 8.0 | 0.00 | 0.00 | 0.00 | 72 | 1019.3 |
| 20260906120732 | 66 | 180 | 3.0 | 8.0 | 0.00 | 0.00 | 0.00 | 72 | 1019.4 |
| 20260906120618 | 66 | 224 | 3.0 | 8.0 | 0.00 | 0.00 | 0.00 | 72 | 1019.3 |
| 20260906120536 | 66 | 187 | 4.0 | 8.0 | 0.00 | 0.00 | 0.00 | 72 | 1019.4 |
| 20260906120424 | 66 | 182 | 5.0 | 8.0 | 0.00 | 0.00 | 0.00 | 72 | 1019.3 |
| 20260906120341 | 66 | 198 | 4.0 | 8.0 | 0.00 | 0.00 | 0.00 | 72 | 1019.3 |
| 20260906120240 | 66 | 222 | 3.0 | 7.0 | 0.00 | 0.00 | 0.00 | 72 | 1019.3 |
| 20260906120235 | 66 | 219 | 3.0 | 7.0 | 0.00 | 0.00 | 0.00 | 72 | 1019.4 |
| 20260906120226 | 66 | 198 | 2.0 | 7.0 | 0.00 | 0.00 | 0.00 | 72 | 1019.3 |
| 20260906115931 | 66 | 225 | 3.0 | 7.0 | 0.00 | 0.00 | 0.00 | 72 | 1019.4 |
| 20260906115833 | 66 | 222 | 4.0 | 7.0 | 0.00 | 0.00 | 0.00 | 72 | 1019.3 |
| 20260906115731 | 66 | 234 | 4.0 | 6.0 | 0.00 | 0.00 | 0.00 | 72 | 1019.4 |
| 20260906115639 | 66 | 214 | 3.0 | 6.0 | 0.00 | 0.00 | 0.00 | 72 | 1019.3 |
| 20260906115526 | 66 | 221 | 3.0 | 6.0 | 0.00 | 0.00 | 0.00 | 72 | 1019.3 |
| 20260906115430 | 66 | 227 | 4.0 | 6.0 | 0.00 | 0.00 | 0.00 | 72 | 1019.4 |
| 20260906115330 | 66 | 205 | 3.0 | 6.0 | 0.00 | 0.00 | 0.00 | 71 | 1019.3 |
| 20260906115221 | 66 | 231 | 3.0 | 7.0 | 0.00 | 0.00 | 0.00 | 71 | 1019.3 |
| 20260906115134 | 66 | 213 | 3.0 | 7.0 | 0.00 | 0.00 | 0.00 | 71 | 1019.3 |
| 20260906115024 | 66 | 225 | 3.0 | 8.0 | 0.00 | 0.00 | 0.00 | 71 | 1019.3 |
| 20260906114927 | 66 | 205 | 4.0 | 8.0 | 0.00 | 0.00 | 0.00 | 71 | 1019.3 |
| 20260906114821 | 66 | 218 | 4.0 | 8.0 | 0.00 | 0.00 | 0.00 | 72 | 1019.4 |
| 20260906114725 | 66 | 198 | 3.0 | 8.0 | 0.00 | 0.00 | 0.00 | 71 | 1019.5 |
| 20260906114718 | 66 | 211 | 3.0 | 8.0 | 0.00 | 0.00 | 0.00 | 72 | 1019.4 |
| 20260906114443 | 66 | 209 | 4.0 | 8.0 | 0.00 | 0.00 | 0.00 | 71 | 1019.3 |
| 20260906114339 | 66 | 248 | 5.0 | 8.0 | 0.00 | 0.00 | 0.00 | 71 | 1019.3 |
| 20260906114218 | 66 | 217 | 5.0 | 8.0 | 0.00 | 0.00 | 0.00 | 71 | 1019.2 |
| 20260906114139 | 66 | 214 | 4.0 | 7.0 | 0.00 | 0.00 | 0.00 | 71 | 1019.3 |
| 20260906114027 | 66 | 209 | 3.0 | 7.0 | 0.00 | 0.00 | 0.00 | 71 | 1019.3 |
| 20260906113944 | 66 | 219 | 2.0 | 7.0 | 0.00 | 0.00 | 0.00 | 70 | 1019.4 |
| 20260906113844 | 66 | 205 | 4.0 | 7.0 | 0.00 | 0.00 | 0.00 | 70 | 1019.3 |
| 20260906113743 | 67 | 202 | 5.0 | 7.0 | 0.00 | 0.00 | 0.00 | 70 | 1019.4 |
| 20260906113629 | 67 | 213 | 4.0 | 7.0 | 0.00 | 0.00 | 0.00 | 69 | 1019.4 |
| 20260906113542 | 67 | 229 | 4.0 | 7.0 | 0.00 | 0.00 | 0.00 | 69 | 1019.3 |
| 20260906113419 | 67 | 239 | 4.0 | 7.0 | 0.00 | 0.00 | 0.00 | 69 | 1019.3 |
| 20260906113321 | 67 | 229 | 4.0 | 7.0 | 0.00 | 0.00 | 0.00 | 69 | 1019.3 |
| 20260906113222 | 67 | 213 | 5.0 | 7.0 | 0.00 | 0.00 | 0.00 | 69 | 1019.3 |
| 20260906113218 | 67 | 153 | 4.0 | 8.0 | 0.00 | 0.00 | 0.00 | 69 | 1019.3 |
| 20260906113214 | 67 | 198 | 5.0 | 7.0 | 0.00 | 0.00 | 0.00 | 68 | 1019.3 |
| 20260906112919 | 67 | 169 | 4.0 | 8.0 | 0.00 | 0.00 | 0.00 | 68 | 1019.3 |
| 20260906112820 | 67 | 184 | 2.0 | 7.0 | 0.00 | 0.00 | 0.00 | 68 | 1019.3 |
| 20260906112726 | 67 | 245 | 1.0 | 5.0 | 0.00 | 0.00 | 0.00 | 68 | 1019.3 |
| 20260906112642 | 67 | 211 | 1.0 | 5.0 | 0.00 | 0.00 | 0.00 | 67 | 1019.3 |
| 20260906112525 | 67 | 243 | 1.0 | 5.0 | 0.00 | 0.00 | 0.00 | 67 | 1019.3 |
| 20260906112431 | 67 | 227 | 2.0 | 5.0 | 0.00 | 0.00 | 0.00 | 67 | 1019.3 |
| 20260906112327 | 67 | 250 | 1.0 | 5.0 | 0.00 | 0.00 | 0.00 | 67 | 1019.2 |
| 20260906112242 | 67 | 269 | 2.0 | 5.0 | 0.00 | 0.00 | 0.00 | 66 | 1019.2 |
| 20260906112143 | 67 | 229 | 2.0 | 5.0 | 0.00 | 0.00 | 0.00 | 66 | 1019.3 |
| 20260906112028 | 67 | 255 | 2.0 | 4.0 | 0.00 | 0.00 | 0.00 | 66 | 1019.2 |
| 20260906111919 | 67 | 236 | 2.0 | 4.0 | 0.00 | 0.00 | 0.00 | 66 | 1019.3 |
| 20260906111831 | 67 | 240 | 2.0 | 4.0 | 0.00 | 0.00 | 0.00 | 66 | 1019.3 |
| 20260906111719 | 67 | 222 | 2.0 | 4.0 | 0.00 | 0.00 | 0.00 | 66 | 1019.2 |
| 20260906111700 | 67 | 223 | 1.0 | 5.0 | 0.00 | 0.00 | 0.00 | 65 | 1019.2 |
| 20260906111425 | 67 | 234 | 1.0 | 5.0 | 0.00 | 0.00 | 0.00 | 65 | 1019.3 |
| 20260906111318 | 67 | 221 | 2.0 | 5.0 | 0.00 | 0.00 | 0.00 | 65 | 1019.3 |
| 20260906111243 | 67 | 219 | 1.0 | 5.0 | 0.00 | 0.00 | 0.00 | 65 | 1019.3 |
| 20260906111128 | 67 | 255 | 0.0 | 5.0 | 0.00 | 0.00 | 0.00 | 65 | 1019.2 |
| 20260906111020 | 67 | 234 | 1.0 | 5.0 | 0.00 | 0.00 | 0.00 | 65 | 1019.2 |
| 20260906110926 | 67 | 248 | 1.0 | 5.0 | 0.00 | 0.00 | 0.00 | 65 | 1019.3 |
| 20260906110818 | 67 | 185 | 2.0 | 7.0 | 0.00 | 0.00 | 0.00 | 65 | 1019.2 |
| 20260906110730 | 67 | 193 | 2.0 | 7.0 | 0.00 | 0.00 | 0.00 | 64 | 1019.3 |
| 20260906110624 | 67 | 182 | 2.0 | 7.0 | 0.00 | 0.00 | 0.00 | 64 | 1019.3 |
| 20260906110539 | 67 | 265 | 1.0 | 7.0 | 0.00 | 0.00 | 0.00 | 64 | 1019.3 |
| 20260906110439 | 67 | 185 | 1.0 | 10.0 | 0.00 | 0.00 | 0.00 | 64 | 1019.2 |
| 20260906110330 | 67 | 230 | 2.0 | 10.0 | 0.00 | 0.00 | 0.00 | 64 | 1019.2 |
| 20260906110241 | 67 | 235 | 3.0 | 10.0 | 0.00 | 0.00 | 0.00 | 63 | 1019.2 |
| 20260906110231 | 67 | 207 | 4.0 | 10.0 | 0.00 | 0.00 | 0.00 | 63 | 1019.1 |
| 20260906110216 | 67 | 183 | 4.0 | 10.0 | 0.00 | 0.00 | 0.00 | 63 | 1019.1 |
| 20260906105924 | 67 | 211 | 4.0 | 10.0 | 0.00 | 0.00 | 0.00 | 63 | 1019.0 |
| 20260906105837 | 67 | 192 | 4.0 | 10.0 | 0.00 | 0.00 | 0.00 | 63 | 1018.9 |
| 20260906105739 | 67 | 235 | 5.0 | 10.0 | 0.00 | 0.00 | 0.00 | 62 | 1018.8 |
| 20260906105618 | 67 | 230 | 5.0 | 10.0 | 0.00 | 0.00 | 0.00 | 62 | 1018.8 |
| 20260906105521 | 68 | 233 | 5.0 | 8.0 | 0.00 | 0.00 | 0.00 | 61 | 1018.7 |
| 20260906105418 | 68 | 219 | 4.0 | 9.0 | 0.00 | 0.00 | 0.00 | 61 | 1018.8 |
| 20260906105331 | 68 | 203 | 4.0 | 9.0 | 0.00 | 0.00 | 0.00 | 61 | 1018.8 |
| 20260906105245 | 68 | 207 | 4.0 | 9.0 | 0.00 | 0.00 | 0.00 | 60 | 1018.8 |
| 20260906105126 | 68 | 220 | 4.0 | 9.0 | 0.00 | 0.00 | 0.00 | 60 | 1018.8 |
| 20260906105042 | 68 | 217 | 5.0 | 9.0 | 0.00 | 0.00 | 0.00 | 59 | 1018.8 |
| 20260906104932 | 68 | 223 | 4.0 | 9.0 | 0.00 | 0.00 | 0.00 | 58 | 1018.8 |
| 20260906104824 | 68 | 173 | 2.0 | 9.0 | 0.00 | 0.00 | 0.00 | 58 | 1018.9 |
| 20260906104724 | 68 | 167 | 3.0 | 9.0 | 0.00 | 0.00 | 0.00 | 58 | 1018.8 |
| 20260906104717 | 68 | 192 | 4.0 | 9.0 | 0.00 | 0.00 | 0.00 | 57 | 1018.8 |
| 20260906104424 | 68 | 146 | 4.0 | 9.0 | 0.00 | 0.00 | 0.00 | 57 | 1018.7 |
| 20260906104336 | 68 | 189 | 5.0 | 9.0 | 0.00 | 0.00 | 0.00 | 57 | 1018.8 |
| 20260906104226 | 69 | 146 | 5.0 | 10.0 | 0.00 | 0.00 | 0.00 | 57 | 1018.8 |
| 20260906104137 | 69 | 167 | 3.0 | 10.0 | 0.00 | 0.00 | 0.00 | 57 | 1018.7 |
| 20260906104024 | 69 | 219 | 3.0 | 10.0 | 0.00 | 0.00 | 0.00 | 56 | 1018.7 |
| 20260906103930 | 69 | 227 | 3.0 | 10.0 | 0.00 | 0.00 | 0.00 | 56 | 1018.7 |
| 20260906103839 | 69 | 219 | 3.0 | 10.0 | 0.00 | 0.00 | 0.00 | 56 | 1018.7 |
| 20260906103745 | 69 | 240 | 5.0 | 10.0 | 0.00 | 0.00 | 0.00 | 56 | 1018.6 |
| 20260906103621 | 69 | 229 | 6.0 | 10.0 | 0.00 | 0.00 | 0.00 | 56 | 1018.7 |
| 20260906103523 | 69 | 153 | 7.0 | 10.0 | 0.00 | 0.00 | 0.00 | 56 | 1018.7 |
| 20260906103423 | 69 | 155 | 8.0 | 10.0 | 0.00 | 0.00 | 0.00 | 56 | 1018.6 |
| 20260906103325 | 69 | 144 | 7.0 | 10.0 | 0.00 | 0.00 | 0.00 | 56 | 1018.6 |
| 20260906103223 | 69 | 142 | 6.0 | 9.0 | 0.00 | 0.00 | 0.00 | 55 | 1018.6 |
| 20260906103217 | 69 | 164 | 5.0 | 9.0 | 0.00 | 0.00 | 0.00 | 55 | 1018.7 |
| 20260906103051 | 69 | 164 | 2.0 | 8.0 | 0.00 | 0.00 | 0.00 | 56 | 1018.7 |
| 20260906102931 | 69 | 211 | 0.0 | 8.0 | 0.00 | 0.00 | 0.00 | 56 | 1018.6 |
| 20260906102832 | 69 | 254 | 0.0 | 8.0 | 0.00 | 0.00 | 0.00 | 56 | 1018.6 |
| 20260906102719 | 69 | 260 | 2.0 | 9.0 | 0.00 | 0.00 | 0.00 | 57 | 1018.6 |
| 20260906102627 | 70 | 304 | 4.0 | 9.0 | 0.00 | 0.00 | 0.00 | 57 | 1018.6 |
| 20260906102533 | 70 | 290 | 4.0 | 9.0 | 0.00 | 0.00 | 0.00 | 57 | 1018.5 |
| 20260906102422 | 70 | 240 | 3.0 | 9.0 | 0.00 | 0.00 | 0.00 | 57 | 1018.5 |
| 20260906102345 | 70 | 287 | 3.0 | 9.0 | 0.00 | 0.00 | 0.00 | 57 | 1018.4 |
| 20260906102218 | 70 | 279 | 4.0 | 9.0 | 0.00 | 0.00 | 0.00 | 56 | 1018.5 |
| 20260906102134 | 70 | 271 | 5.0 | 9.0 | 0.00 | 0.00 | 0.00 | 56 | 1018.5 |
| 20260906102038 | 70 | 274 | 6.0 | 9.0 | 0.00 | 0.00 | 0.00 | 56 | 1018.5 |
| 20260906101942 | 70 | 251 | 6.0 | 9.0 | 0.00 | 0.00 | 0.00 | 56 | 1018.5 |
| 20260906101828 | 70 | 294 | 4.0 | 9.0 | 0.00 | 0.00 | 0.00 | 55 | 1018.5 |
| 20260906101737 | 70 | 252 | 5.0 | 9.0 | 0.00 | 0.00 | 0.00 | 55 | 1018.6 |
| 20260906101700 | 70 | 281 | 5.0 | 9.0 | 0.00 | 0.00 | 0.00 | 55 | 1018.5 |
| 20260906101639 | 70 | 297 | 3.0 | 7.0 | 0.00 | 0.00 | 0.00 | 54 | 1018.5 |
| 20260906101432 | 70 | 259 | 2.0 | 6.0 | 0.00 | 0.00 | 0.00 | 54 | 1018.4 |
| 20260906101316 | 71 | 277 | 2.0 | 6.0 | 0.00 | 0.00 | 0.00 | 53 | 1018.5 |
| 20260906101243 | 71 | 270 | 3.0 | 6.0 | 0.00 | 0.00 | 0.00 | 53 | 1018.4 |
| 20260906101125 | 71 | 226 | 4.0 | 6.0 | 0.00 | 0.00 | 0.00 | 52 | 1018.5 |
| 20260906101031 | 71 | 216 | 2.0 | 6.0 | 0.00 | 0.00 | 0.00 | 52 | 1018.4 |
| 20260906100925 | 71 | 219 | 1.0 | 6.0 | 0.00 | 0.00 | 0.00 | 51 | 1018.5 |
| 20260906100823 | 71 | 235 | 1.0 | 6.0 | 0.00 | 0.00 | 0.00 | 51 | 1018.4 |
| 20260906100736 | 71 | 248 | 2.0 | 6.0 | 0.00 | 0.00 | 0.00 | 51 | 1018.5 |
| 20260906100634 | 71 | 261 | 3.0 | 6.0 | 0.00 | 0.00 | 0.00 | 50 | 1018.5 |
| 20260906100528 | 71 | 210 | 3.0 | 6.0 | 0.00 | 0.00 | 0.00 | 50 | 1018.5 |
| 20260906100417 | 71 | 234 | 2.0 | 5.0 | 0.00 | 0.00 | 0.00 | 50 | 1018.5 |
| 20260906100328 | 71 | 233 | 3.0 | 5.0 | 0.00 | 0.00 | 0.00 | 50 | 1018.6 |
| 20260906100256 | 70 | 236 | 2.0 | 5.0 | 0.00 | 0.00 | 0.00 | 50 | 1018.5 |
| 20260906100231 | 70 | 223 | 1.0 | 4.0 | 0.00 | 0.00 | 0.00 | 50 | 1018.6 |
| 20260906095937 | 70 | 259 | 0.0 | 4.0 | 0.00 | 0.00 | 0.00 | 50 | 1018.5 |
| 20260906095825 | 70 | 184 | 1.0 | 4.0 | 0.00 | 0.00 | 0.00 | 51 | 1018.6 |
| 20260906095738 | 70 | 231 | 3.0 | 4.0 | 0.00 | 0.00 | 0.00 | 50 | 1018.6 |
| 20260906095640 | 70 | 201 | 1.0 | 4.0 | 0.00 | 0.00 | 0.00 | 50 | 1018.6 |
| 20260906095532 | 70 | 257 | 1.0 | 4.0 | 0.00 | 0.00 | 0.00 | 51 | 1018.6 |
| 20260906095419 | 70 | 204 | 2.0 | 4.0 | 0.00 | 0.00 | 0.00 | 51 | 1018.6 |
| 20260906095332 | 70 | 246 | 1.0 | 4.0 | 0.00 | 0.00 | 0.00 | 51 | 1018.5 |
| 20260906095224 | 70 | 206 | 0.0 | 4.0 | 0.00 | 0.00 | 0.00 | 51 | 1018.7 |
| 20260906095139 | 70 | 275 | 0.0 | 0.0 | 0.00 | 0.00 | 0.00 | 51 | 1018.6 |
| 20260906095027 | 70 | 293 | 0.0 | 0.0 | 0.00 | 0.00 | 0.00 | 51 | 1018.6 |
| 20260906094937 | 70 | 297 | 0.0 | 0.0 | 0.00 | 0.00 | 0.00 | 51 | 1018.6 |
| 20260906094831 | 70 | 298 | 0.0 | 1.0 | 0.00 | 0.00 | 0.00 | 51 | 1018.6 |
| 20260906094727 | 70 | 294 | 0.0 | 1.0 | 0.00 | 0.00 | 0.00 | 51 | 1018.6 |
| 20260906094725 | 70 | 312 | 0.0 | 1.0 | 0.00 | 0.00 | 0.00 | 51 | 1018.6 |
| 20260906094702 | 70 | 311 | 0.0 | 1.0 | 0.00 | 0.00 | 0.00 | 51 | 1018.5 |
| 20260906094429 | 70 | 309 | 0.0 | 2.0 | 0.00 | 0.00 | 0.00 | 51 | 1018.6 |
| 20260906094342 | 70 | 309 | 0.0 | 2.0 | 0.00 | 0.00 | 0.00 | 51 | 1018.6 |
| 20260906094227 | 70 | 306 | 0.0 | 2.0 | 0.00 | 0.00 | 0.00 | 51 | 1018.6 |
| 20260906094125 | 70 | 300 | 0.0 | 3.0 | 0.00 | 0.00 | 0.00 | 51 | 1018.6 |
| 20260906094023 | 70 | 317 | 0.0 | 3.0 | 0.00 | 0.00 | 0.00 | 51 | 1018.6 |
| 20260906093937 | 70 | 317 | 0.0 | 3.0 | 0.00 | 0.00 | 0.00 | 50 | 1018.7 |
| 20260906093839 | 70 | 309 | 0.0 | 3.0 | 0.00 | 0.00 | 0.00 | 51 | 1018.7 |
| 20260906093733 | 71 | 343 | 0.0 | 3.0 | 0.00 | 0.00 | 0.00 | 51 | 1018.8 |
| 20260906093618 | 71 | 352 | 0.0 | 3.0 | 0.00 | 0.00 | 0.00 | 51 | 1018.7 |
| 20260906093526 | 71 | 348 | 0.0 | 3.0 | 0.00 | 0.00 | 0.00 | 50 | 1018.7 |
| 20260906093439 | 71 | 342 | 0.0 | 3.0 | 0.00 | 0.00 | 0.00 | 50 | 1018.8 |
| 20260906093324 | 71 | 311 | 0.0 | 6.0 | 0.00 | 0.00 | 0.00 | 50 | 1018.8 |
| 20260906093217 | 71 | 341 | 0.0 | 6.0 | 0.00 | 0.00 | 0.00 | 51 | 1018.7 |
| 20260906093203 | 71 | 301 | 0.0 | 6.0 | 0.00 | 0.00 | 0.00 | 50 | 1018.7 |
| 20260906092934 | 71 | 306 | 0.0 | 6.0 | 0.00 | 0.00 | 0.00 | 50 | 1018.7 |
| 20260906092844 | 71 | 300 | 0.0 | 6.0 | 0.00 | 0.00 | 0.00 | 50 | 1018.8 |
| 20260906092741 | 71 | 271 | 0.0 | 6.0 | 0.00 | 0.00 | 0.00 | 50 | 1018.8 |
| 20260906092637 | 71 | 271 | 2.0 | 6.0 | 0.00 | 0.00 | 0.00 | 49 | 1018.7 |
| 20260906092539 | 71 | 282 | 4.0 | 6.0 | 0.00 | 0.00 | 0.00 | 49 | 1018.6 |
| 20260906092432 | 71 | 309 | 3.0 | 6.0 | 0.00 | 0.00 | 0.00 | 50 | 1018.6 |
| 20260906092329 | 71 | 296 | 2.0 | 5.0 | 0.00 | 0.00 | 0.00 | 50 | 1018.6 |
| 20260906092216 | 71 | 296 | 1.0 | 5.0 | 0.00 | 0.00 | 0.00 | 50 | 1018.6 |
| 20260906092128 | 71 | 267 | 2.0 | 5.0 | 0.00 | 0.00 | 0.00 | 50 | 1018.6 |
| 20260906092030 | 70 | 284 | 2.0 | 5.0 | 0.00 | 0.00 | 0.00 | 50 | 1018.6 |
| 20260906091919 | 70 | 268 | 2.0 | 5.0 | 0.00 | 0.00 | 0.00 | 50 | 1018.6 |
| 20260906091825 | 70 | 261 | 1.0 | 5.0 | 0.00 | 0.00 | 0.00 | 51 | 1018.6 |
| 20260906091722 | 70 | 275 | 2.0 | 5.0 | 0.00 | 0.00 | 0.00 | 51 | 1018.7 |
| 20260906091720 | 71 | 303 | 2.0 | 5.0 | 0.00 | 0.00 | 0.00 | 51 | 1018.6 |
| 20260906091717 | 71 | 309 | 1.0 | 4.0 | 0.00 | 0.00 | 0.00 | 52 | 1018.6 |
| 20260906091425 | 71 | 323 | 0.0 | 4.0 | 0.00 | 0.00 | 0.00 | 52 | 1018.7 |
| 20260906091318 | 71 | 333 | 0.0 | 4.0 | 0.00 | 0.00 | 0.00 | 52 | 1018.6 |
| 20260906091236 | 71 | 344 | 0.0 | 4.0 | 0.00 | 0.00 | 0.00 | 52 | 1018.6 |
| 20260906091124 | 71 | 343 | 1.0 | 4.0 | 0.00 | 0.00 | 0.00 | 51 | 1018.6 |
| 20260906091033 | 71 | 349 | 2.0 | 4.0 | 0.00 | 0.00 | 0.00 | 51 | 1018.6 |
| 20260906090938 | 71 | 360 | 2.0 | 4.0 | 0.00 | 0.00 | 0.00 | 51 | 1018.6 |
| 20260906090838 | 71 | 352 | 2.0 | 4.0 | 0.00 | 0.00 | 0.00 | 51 | 1018.6 |
| 20260906090724 | 71 | 352 | 2.0 | 4.0 | 0.00 | 0.00 | 0.00 | 51 | 1018.6 |
| 20260906090639 | 71 | 11 | 1.0 | 3.0 | 0.00 | 0.00 | 0.00 | 51 | 1018.6 |
| 20260906090546 | 71 | 5 | 2.0 | 3.0 | 0.00 | 0.00 | 0.00 | 51 | 1018.6 |
| 20260906090438 | 71 | 340 | 2.0 | 3.0 | 0.00 | 0.00 | 0.00 | 51 | 1018.6 |
| 20260906090338 | 71 | 350 | 1.0 | 3.0 | 0.00 | 0.00 | 0.00 | 52 | 1018.6 |
| 20260906090245 | 71 | 5 | 1.0 | 3.0 | 0.00 | 0.00 | 0.00 | 52 | 1018.6 |
| 20260906090241 | 71 | 13 | 0.0 | 2.0 | 0.00 | 0.00 | 0.00 | 52 | 1018.6 |
| 20260906090229 | 71 | 348 | 0.0 | 2.0 | 0.00 | 0.00 | 0.00 | 51 | 1018.5 |
| 20260906085919 | 71 | 344 | 0.0 | 2.0 | 0.00 | 0.00 | 0.00 | 51 | 1018.5 |
| 20260906085818 | 71 | 346 | 0.0 | 0.0 | 0.00 | 0.00 | 0.00 | 51 | 1018.4 |
| 20260906085728 | 71 | 323 | 0.0 | 0.0 | 0.00 | 0.00 | 0.00 | 51 | 1018.3 |
| 20260906085630 | 71 | 326 | 0.0 | 0.0 | 0.00 | 0.00 | 0.00 | 51 | 1018.3 |
| 20260906085545 | 71 | 327 | 0.0 | 0.0 | 0.00 | 0.00 | 0.00 | 51 | 1018.4 |
| 20260906085441 | 71 | 329 | 0.0 | 0.0 | 0.00 | 0.00 | 0.00 | 51 | 1018.2 |
| 20260906085340 | 71 | 335 | 0.0 | 0.0 | 0.00 | 0.00 | 0.00 | 51 | 1018.3 |
| 20260906085244 | 71 | 336 | 0.0 | 0.0 | 0.00 | 0.00 | 0.00 | 51 | 1018.4 |
| 20260906085141 | 71 | 339 | 0.0 | 2.0 | 0.00 | 0.00 | 0.00 | 52 | 1018.4 |
| 20260906085030 | 71 | 323 | 0.0 | 4.0 | 0.00 | 0.00 | 0.00 | 51 | 1018.4 |
| 20260906084942 | 71 | 307 | 0.0 | 4.0 | 0.00 | 0.00 | 0.00 | 51 | 1018.4 |
| 20260906084835 | 71 | 269 | 0.0 | 4.0 | 0.00 | 0.00 | 0.00 | 51 | 1018.4 |
| 20260906084722 | 71 | 258 | 0.0 | 4.0 | 0.00 | 0.00 | 0.00 | 51 | 1018.3 |
| 20260906084719 | 71 | 300 | 0.0 | 4.0 | 0.00 | 0.00 | 0.00 | 51 | 1018.3 |
| 20260906084632 | 71 | 309 | 0.0 | 4.0 | 0.00 | 0.00 | 0.00 | 51 | 1018.4 |
| 20260906084434 | 71 | 311 | 0.0 | 4.0 | 0.00 | 0.00 | 0.00 | 51 | 1018.4 |
| 20260906084329 | 71 | 312 | 1.0 | 4.0 | 0.00 | 0.00 | 0.00 | 51 | 1018.4 |
| 20260906084216 | 71 | 348 | 2.0 | 4.0 | 0.00 | 0.00 | 0.00 | 51 | 1018.4 |
| 20260906084126 | 71 | 355 | 1.0 | 3.0 | 0.00 | 0.00 | 0.00 | 51 | 1018.4 |
| 20260906084028 | 71 | 5 | 1.0 | 3.0 | 0.00 | 0.00 | 0.00 | 51 | 1018.2 |
| 20260906083929 | 71 | 331 | 1.0 | 3.0 | 0.00 | 0.00 | 0.00 | 51 | 1018.2 |
| 20260906083837 | 71 | 306 | 1.0 | 2.0 | 0.00 | 0.00 | 0.00 | 51 | 1018.2 |
| 20260906083728 | 71 | 341 | 0.0 | 2.0 | 0.00 | 0.00 | 0.00 | 51 | 1018.2 |
| 20260906083619 | 71 | 291 | 0.0 | 2.0 | 0.00 | 0.00 | 0.00 | 51 | 1018.3 |
| 20260906083524 | 71 | 315 | 0.0 | 2.0 | 0.00 | 0.00 | 0.00 | 51 | 1018.2 |
| 20260906083437 | 71 | 341 | 1.0 | 2.0 | 0.00 | 0.00 | 0.00 | 51 | 1018.2 |
| 20260906083326 | 71 | 319 | 1.0 | 2.0 | 0.00 | 0.00 | 0.00 | 51 | 1018.3 |
| 20260906083218 | 71 | 331 | 0.0 | 3.0 | 0.00 | 0.00 | 0.00 | 51 | 1018.2 |
| 20260906083206 | 71 | 344 | 0.0 | 3.0 | 0.00 | 0.00 | 0.00 | 51 | 1018.2 |
| 20260906083153 | 71 | 342 | 0.0 | 3.0 | 0.00 | 0.00 | 0.00 | 51 | 1018.3 |
| 20260906082931 | 71 | 348 | 0.0 | 3.0 | 0.00 | 0.00 | 0.00 | 51 | 1018.3 |
| 20260906082842 | 71 | 343 | 0.0 | 3.0 | 0.00 | 0.00 | 0.00 | 51 | 1018.3 |
| 20260906082742 | 72 | 333 | 0.0 | 3.0 | 0.00 | 0.00 | 0.00 | 50 | 1018.4 |
| 20260906082636 | 72 | 331 | 0.0 | 3.0 | 0.00 | 0.00 | 0.00 | 50 | 1018.3 |
| 20260906082536 | 72 | 322 | 0.0 | 3.0 | 0.00 | 0.00 | 0.00 | 50 | 1018.4 |
| 20260906082442 | 72 | 328 | 0.0 | 3.0 | 0.00 | 0.00 | 0.00 | 50 | 1018.4 |
| 20260906082329 | 72 | 336 | 0.0 | 1.0 | 0.00 | 0.00 | 0.00 | 50 | 1018.5 |
| 20260906082243 | 72 | 337 | 0.0 | 1.0 | 0.00 | 0.00 | 0.00 | 50 | 1018.5 |
| 20260906082128 | 72 | 331 | 0.0 | 1.0 | 0.00 | 0.00 | 0.00 | 50 | 1018.5 |
| 20260906082041 | 72 | 333 | 0.0 | 2.0 | 0.00 | 0.00 | 0.00 | 50 | 1018.4 |
| 20260906081936 | 72 | 339 | 0.0 | 2.0 | 0.00 | 0.00 | 0.00 | 50 | 1018.4 |
| 20260906081823 | 72 | 345 | 0.0 | 2.0 | 0.00 | 0.00 | 0.00 | 50 | 1018.4 |
| 20260906081719 | 72 | 355 | 0.0 | 2.0 | 0.00 | 0.00 | 0.00 | 49 | 1018.4 |
| 20260906081715 | 72 | 33 | 0.0 | 2.0 | 0.00 | 0.00 | 0.00 | 49 | 1018.4 |
| 20260906081635 | 72 | 46 | 0.0 | 2.0 | 0.00 | 0.00 | 0.00 | 49 | 1018.4 |
| 20260906081419 | 72 | 62 | 0.0 | 2.0 | 0.00 | 0.00 | 0.00 | 49 | 1018.4 |
| 20260906081334 | 72 | 73 | 0.0 | 2.0 | 0.00 | 0.00 | 0.00 | 49 | 1018.4 |
| 20260906081240 | 72 | 82 | 0.0 | 2.0 | 0.00 | 0.00 | 0.00 | 49 | 1018.4 |
| 20260906081134 | 72 | 82 | 0.0 | 2.0 | 0.00 | 0.00 | 0.00 | 49 | 1018.4 |
| 20260906081035 | 72 | 94 | 0.0 | 2.0 | 0.00 | 0.00 | 0.00 | 48 | 1018.4 |
| 20260906080921 | 73 | 74 | 0.0 | 2.0 | 0.00 | 0.00 | 0.00 | 48 | 1018.4 |
| 20260906080840 | 73 | 79 | 0.0 | 2.0 | 0.00 | 0.00 | 0.00 | 48 | 1018.4 |
| 20260906080732 | 73 | 30 | 0.0 | 2.0 | 0.00 | 0.00 | 0.00 | 48 | 1018.4 |
| 20260906080643 | 73 | 21 | 0.0 | 2.0 | 0.00 | 0.00 | 0.00 | 48 | 1018.4 |
| 20260906080529 | 73 | 28 | 0.0 | 2.0 | 0.00 | 0.00 | 0.00 | 47 | 1018.4 |
| 20260906080432 | 73 | 29 | 0.0 | 2.0 | 0.00 | 0.00 | 0.00 | 47 | 1018.4 |
| 20260906080327 | 73 | 23 | 0.0 | 2.0 | 0.00 | 0.00 | 0.00 | 47 | 1018.4 |
| 20260906080241 | 73 | 22 | 0.0 | 2.0 | 0.00 | 0.00 | 0.00 | 47 | 1018.4 |
| 20260906080227 | 73 | 16 | 0.0 | 1.0 | 0.00 | 0.00 | 0.00 | 47 | 1018.4 |
| 20260906075923 | 73 | 10 | 0.0 | 1.0 | 0.00 | 0.00 | 0.00 | 46 | 1018.4 |
| 20260906075840 | 73 | 9 | 0.0 | 2.0 | 0.00 | 0.00 | 0.00 | 46 | 1018.3 |
| 20260906075721 | 73 | 9 | 0.0 | 3.0 | 0.00 | 0.00 | 0.00 | 46 | 1018.4 |
| 20260906075618 | 74 | 10 | 0.0 | 3.0 | 0.00 | 0.00 | 0.00 | 46 | 1018.3 |
| 20260906075530 | 74 | 13 | 0.0 | 3.0 | 0.00 | 0.00 | 0.00 | 46 | 1018.2 |
| 20260906075431 | 74 | 24 | 0.0 | 3.0 | 0.00 | 0.00 | 0.00 | 46 | 1018.2 |
| 20260906075325 | 74 | 36 | 0.0 | 4.0 | 0.00 | 0.00 | 0.00 | 46 | 1018.2 |
| 20260906075243 | 74 | 48 | 0.0 | 4.0 | 0.00 | 0.00 | 0.00 | 46 | 1018.2 |
| 20260906075118 | 74 | 61 | 1.0 | 4.0 | 0.00 | 0.00 | 0.00 | 46 | 1018.1 |
| 20260906075031 | 74 | 86 | 1.0 | 4.0 | 0.00 | 0.00 | 0.00 | 46 | 1018.2 |
| 20260906074932 | 74 | 102 | 1.0 | 4.0 | 0.00 | 0.00 | 0.00 | 45 | 1018.1 |
| 20260906074835 | 74 | 77 | 2.0 | 4.0 | 0.00 | 0.00 | 0.00 | 45 | 1018.1 |
| 20260906074725 | 74 | 91 | 2.0 | 4.0 | 0.00 | 0.00 | 0.00 | 45 | 1018.1 |
| 20260906074658 | 74 | 107 | 2.0 | 4.0 | 0.00 | 0.00 | 0.00 | 45 | 1018.1 |
| 20260906074652 | 74 | 107 | 2.0 | 4.0 | 0.00 | 0.00 | 0.00 | 45 | 1018.1 |
| 20260906074434 | 74 | 126 | 1.0 | 3.0 | 0.00 | 0.00 | 0.00 | 45 | 1018.2 |
| 20260906074340 | 74 | 110 | 1.0 | 3.0 | 0.00 | 0.00 | 0.00 | 45 | 1018.1 |
| 20260906074241 | 74 | 101 | 1.0 | 3.0 | 0.00 | 0.00 | 0.00 | 45 | 1018.1 |
| 20260906074140 | 74 | 115 | 1.0 | 3.0 | 0.00 | 0.00 | 0.00 | 45 | 1018.1 |
| 20260906074028 | 74 | 110 | 1.0 | 3.0 | 0.00 | 0.00 | 0.00 | 45 | 1018.1 |
| 20260906073927 | 74 | 111 | 1.0 | 3.0 | 0.00 | 0.00 | 0.00 | 45 | 1018.0 |
| 20260906073831 | 74 | 105 | 0.0 | 3.0 | 0.00 | 0.00 | 0.00 | 45 | 1018.0 |
| 20260906073731 | 74 | 109 | 0.0 | 3.0 | 0.00 | 0.00 | 0.00 | 45 | 1018.1 |
| 20260906073634 | 74 | 131 | 1.0 | 4.0 | 0.00 | 0.00 | 0.00 | 44 | 1018.0 |
| 20260906073524 | 74 | 111 | 1.0 | 4.0 | 0.00 | 0.00 | 0.00 | 44 | 1018.1 |
| 20260906073418 | 74 | 104 | 1.0 | 4.0 | 0.00 | 0.00 | 0.00 | 45 | 1018.1 |
| 20260906073343 | 74 | 93 | 0.0 | 4.0 | 0.00 | 0.00 | 0.00 | 45 | 1018.0 |
| 20260906073222 | 74 | 105 | 0.0 | 4.0 | 0.00 | 0.00 | 0.00 | 45 | 1018.1 |
| 20260906073203 | 74 | 142 | 1.0 | 4.0 | 0.00 | 0.00 | 0.00 | 45 | 1018.0 |
| 20260906073143 | 74 | 42 | 0.0 | 4.0 | 0.00 | 0.00 | 0.00 | 45 | 1018.1 |
| 20260906072930 | 74 | 44 | 1.0 | 4.0 | 0.00 | 0.00 | 0.00 | 44 | 1018.1 |
| 20260906072820 | 74 | 60 | 1.0 | 4.0 | 0.00 | 0.00 | 0.00 | 44 | 1018.1 |
| 20260906072724 | 74 | 82 | 1.0 | 4.0 | 0.00 | 0.00 | 0.00 | 44 | 1018.1 |
| 20260906072639 | 74 | 72 | 1.0 | 6.0 | 0.00 | 0.00 | 0.00 | 44 | 1018.1 |
| 20260906072539 | 74 | 101 | 0.0 | 6.0 | 0.00 | 0.00 | 0.00 | 44 | 1018.1 |
| 20260906072437 | 74 | 115 | 1.0 | 6.0 | 0.00 | 0.00 | 0.00 | 44 | 1018.2 |
| 20260906072346 | 74 | 96 | 1.0 | 6.0 | 0.00 | 0.00 | 0.00 | 44 | 1018.1 |
| 20260906072232 | 74 | 109 | 1.0 | 6.0 | 0.00 | 0.00 | 0.00 | 44 | 1018.1 |
| 20260906072121 | 74 | 99 | 1.0 | 7.0 | 0.00 | 0.00 | 0.00 | 44 | 1018.1 |
| 20260906072026 | 75 | 117 | 1.0 | 9.0 | 0.00 | 0.00 | 0.00 | 44 | 1018.1 |
| 20260906071931 | 75 | 88 | 3.0 | 9.0 | 0.00 | 0.00 | 0.00 | 44 | 1018.1 |
| 20260906071830 | 75 | 104 | 3.0 | 9.0 | 0.00 | 0.00 | 0.00 | 44 | 1018.1 |
| 20260906071716 | 75 | 111 | 2.0 | 9.0 | 0.00 | 0.00 | 0.00 | 44 | 1018.1 |
| 20260906071711 | 75 | 97 | 2.0 | 9.0 | 0.00 | 0.00 | 0.00 | 44 | 1018.1 |
| 20260906071620 | 75 | 111 | 3.0 | 9.0 | 0.00 | 0.00 | 0.00 | 44 | 1018.1 |
| 20260906071434 | 75 | 98 | 4.0 | 9.0 | 0.00 | 0.00 | 0.00 | 44 | 1018.1 |
| 20260906071321 | 75 | 77 | 5.0 | 9.0 | 0.00 | 0.00 | 0.00 | 44 | 1018.1 |
| 20260906071236 | 75 | 113 | 4.0 | 9.0 | 0.00 | 0.00 | 0.00 | 44 | 1018.1 |
| 20260906071131 | 75 | 112 | 3.0 | 8.0 | 0.00 | 0.00 | 0.00 | 43 | 1018.0 |
| 20260906071032 | 75 | 106 | 3.0 | 9.0 | 0.00 | 0.00 | 0.00 | 43 | 1017.9 |
| 20260906070943 | 75 | 105 | 4.0 | 9.0 | 0.00 | 0.00 | 0.00 | 44 | 1017.9 |
| 20260906070828 | 75 | 179 | 5.0 | 9.0 | 0.00 | 0.00 | 0.00 | 43 | 1017.9 |
| 20260906070743 | 75 | 178 | 5.0 | 9.0 | 0.00 | 0.00 | 0.00 | 43 | 1017.9 |
| 20260906070630 | 75 | 155 | 5.0 | 9.0 | 0.00 | 0.00 | 0.00 | 43 | 1017.9 |
| 20260906070522 | 75 | 155 | 3.0 | 9.0 | 0.00 | 0.00 | 0.00 | 43 | 1017.9 |
| 20260906070424 | 75 | 156 | 3.0 | 9.0 | 0.00 | 0.00 | 0.00 | 43 | 1017.8 |
| 20260906070320 | 75 | 155 | 4.0 | 9.0 | 0.00 | 0.00 | 0.00 | 43 | 1017.8 |
| 20260906070223 | 75 | 218 | 4.0 | 9.0 | 0.00 | 0.00 | 0.00 | 44 | 1017.8 |
| 20260906070217 | 75 | 163 | 4.0 | 9.0 | 0.00 | 0.00 | 0.00 | 43 | 1017.8 |
| 20260906070119 | 75 | 239 | 3.0 | 9.0 | 0.00 | 0.00 | 0.00 | 43 | 1017.8 |
| 20260906065926 | 75 | 242 | 2.0 | 9.0 | 0.00 | 0.00 | 0.00 | 43 | 1017.9 |
| 20260906065837 | 75 | 232 | 4.0 | 9.0 | 0.00 | 0.00 | 0.00 | 43 | 1017.8 |
| 20260906065736 | 75 | 211 | 5.0 | 9.0 | 0.00 | 0.00 | 0.00 | 43 | 1017.7 |
| 20260906065642 | 75 | 214 | 4.0 | 9.0 | 0.00 | 0.00 | 0.00 | 43 | 1017.9 |
| 20260906065527 | 75 | 242 | 3.0 | 9.0 | 0.00 | 0.00 | 0.00 | 43 | 1017.7 |
| 20260906065427 | 75 | 206 | 2.0 | 7.0 | 0.00 | 0.00 | 0.00 | 43 | 1017.8 |
| 20260906065320 | 75 | 235 | 3.0 | 7.0 | 0.00 | 0.00 | 0.00 | 43 | 1017.9 |
| 20260906065243 | 75 | 227 | 3.0 | 7.0 | 0.00 | 0.00 | 0.00 | 43 | 1017.9 |
| 20260906065126 | 75 | 239 | 1.0 | 5.0 | 0.00 | 0.00 | 0.00 | 43 | 1018.0 |
| 20260906065035 | 75 | 226 | 0.0 | 2.0 | 0.00 | 0.00 | 0.00 | 43 | 1017.9 |
| 20260906064925 | 75 | 188 | 0.0 | 2.0 | 0.00 | 0.00 | 0.00 | 43 | 1017.9 |
| 20260906064832 | 75 | 174 | 0.0 | 2.0 | 0.00 | 0.00 | 0.00 | 43 | 1017.9 |
| 20260906064748 | 75 | 175 | 0.0 | 1.0 | 0.00 | 0.00 | 0.00 | 43 | 1017.9 |
| 20260906064652 | 75 | 173 | 0.0 | 2.0 | 0.00 | 0.00 | 0.00 | 42 | 1017.9 |
| 20260906064551 | 75 | 171 | 0.0 | 2.0 | 0.00 | 0.00 | 0.00 | 42 | 1018.0 |
| 20260906064420 | 75 | 184 | 0.0 | 2.0 | 0.00 | 0.00 | 0.00 | 42 | 1018.0 |
| 20260906064342 | 75 | 109 | 0.0 | 2.0 | 0.00 | 0.00 | 0.00 | 42 | 1018.0 |
| 20260906064224 | 75 | 126 | 0.0 | 3.0 | 0.00 | 0.00 | 0.00 | 42 | 1017.9 |
| 20260906064121 | 75 | 111 | 0.0 | 3.0 | 0.00 | 0.00 | 0.00 | 42 | 1018.0 |
| 20260906064041 | 76 | 121 | 0.0 | 3.0 | 0.00 | 0.00 | 0.00 | 42 | 1017.9 |
| 20260906063924 | 76 | 142 | 0.0 | 3.0 | 0.00 | 0.00 | 0.00 | 42 | 1017.9 |
| 20260906063836 | 76 | 111 | 1.0 | 4.0 | 0.00 | 0.00 | 0.00 | 42 | 1018.1 |
| 20260906063745 | 76 | 92 | 0.0 | 6.0 | 0.00 | 0.00 | 0.00 | 42 | 1018.0 |
| 20260906063623 | 76 | 105 | 0.0 | 6.0 | 0.00 | 0.00 | 0.00 | 42 | 1018.0 |
| 20260906063531 | 76 | 110 | 1.0 | 6.0 | 0.00 | 0.00 | 0.00 | 41 | 1018.1 |
| 20260906063420 | 76 | 124 | 1.0 | 6.0 | 0.00 | 0.00 | 0.00 | 41 | 1018.0 |
| 20260906063328 | 76 | 136 | 1.0 | 6.0 | 0.00 | 0.00 | 0.00 | 41 | 1018.1 |
| 20260906063227 | 76 | 118 | 2.0 | 6.0 | 0.00 | 0.00 | 0.00 | 41 | 1018.1 |
| 20260906063141 | 76 | 128 | 2.0 | 6.0 | 0.00 | 0.00 | 0.00 | 41 | 1018.1 |
| 20260906063137 | 76 | 139 | 3.0 | 6.0 | 0.00 | 0.00 | 0.00 | 41 | 1018.1 |
| 20260906062940 | 76 | 113 | 2.0 | 6.0 | 0.00 | 0.00 | 0.00 | 41 | 1018.1 |
| 20260906062821 | 76 | 107 | 2.0 | 6.0 | 0.00 | 0.00 | 0.00 | 41 | 1018.2 |
| 20260906062745 | 76 | 115 | 2.0 | 6.0 | 0.00 | 0.00 | 0.00 | 41 | 1018.2 |
| 20260906062634 | 76 | 101 | 2.0 | 6.0 | 0.00 | 0.00 | 0.00 | 40 | 1018.1 |
| 20260906062534 | 76 | 108 | 2.0 | 6.0 | 0.00 | 0.00 | 0.00 | 40 | 1018.2 |
| 20260906062431 | 76 | 109 | 2.0 | 6.0 | 0.00 | 0.00 | 0.00 | 40 | 1018.2 |
| 20260906062340 | 76 | 109 | 1.0 | 6.0 | 0.00 | 0.00 | 0.00 | 40 | 1018.2 |
| 20260906062238 | 76 | 116 | 1.0 | 6.0 | 0.00 | 0.00 | 0.00 | 40 | 1018.2 |
| 20260906062120 | 77 | 146 | 3.0 | 7.0 | 0.00 | 0.00 | 0.00 | 40 | 1018.2 |
| 20260906062024 | 77 | 166 | 3.0 | 7.0 | 0.00 | 0.00 | 0.00 | 40 | 1018.2 |
| 20260906061929 | 77 | 169 | 1.0 | 7.0 | 0.00 | 0.00 | 0.00 | 40 | 1018.3 |
| 20260906061819 | 77 | 165 | 2.0 | 7.0 | 0.00 | 0.00 | 0.00 | 40 | 1018.2 |
| 20260906061722 | 77 | 132 | 3.0 | 7.0 | 0.00 | 0.00 | 0.00 | 40 | 1018.3 |
| 20260906061644 | 77 | 137 | 4.0 | 7.0 | 0.00 | 0.00 | 0.00 | 40 | 1018.4 |
| 20260906061639 | 77 | 146 | 3.0 | 7.0 | 0.00 | 0.00 | 0.00 | 40 | 1018.4 |
| 20260906061442 | 77 | 121 | 4.0 | 7.0 | 0.00 | 0.00 | 0.00 | 40 | 1018.4 |
| 20260906061343 | 77 | 105 | 4.0 | 7.0 | 0.00 | 0.00 | 0.00 | 40 | 1018.4 |
| 20260906061227 | 77 | 129 | 3.0 | 7.0 | 0.00 | 0.00 | 0.00 | 40 | 1018.5 |
| 20260906061141 | 77 | 107 | 2.0 | 4.0 | 0.00 | 0.00 | 0.00 | 40 | 1018.4 |
| 20260906061040 | 77 | 92 | 1.0 | 3.0 | 0.00 | 0.00 | 0.00 | 40 | 1018.5 |
| 20260906060923 | 77 | 19 | 0.0 | 2.0 | 0.00 | 0.00 | 0.00 | 39 | 1018.5 |
| 20260906060833 | 77 | 306 | 0.0 | 2.0 | 0.00 | 0.00 | 0.00 | 39 | 1018.6 |
| 20260906060734 | 77 | 270 | 0.0 | 2.0 | 0.00 | 0.00 | 0.00 | 39 | 1018.5 |
| 20260906060639 | 77 | 284 | 0.0 | 2.0 | 0.00 | 0.00 | 0.00 | 39 | 1018.4 |
| 20260906060543 | 77 | 270 | 0.0 | 3.0 | 0.00 | 0.00 | 0.00 | 39 | 1018.6 |
| 20260906060436 | 77 | 269 | 0.0 | 6.0 | 0.00 | 0.00 | 0.00 | 39 | 1018.6 |
| 20260906060340 | 77 | 277 | 0.0 | 7.0 | 0.00 | 0.00 | 0.00 | 39 | 1018.5 |
| 20260906060227 | 77 | 299 | 0.0 | 7.0 | 0.00 | 0.00 | 0.00 | 39 | 1018.6 |
| 20260906060219 | 77 | 244 | 0.0 | 7.0 | 0.00 | 0.00 | 0.00 | 39 | 1018.6 |
| 20260906060200 | 77 | 250 | 0.0 | 7.0 | 0.00 | 0.00 | 0.00 | 39 | 1018.7 |
| 20260906055940 | 77 | 211 | 0.0 | 7.0 | 0.00 | 0.00 | 0.00 | 39 | 1018.6 |
| 20260906055832 | 77 | 184 | 1.0 | 7.0 | 0.00 | 0.00 | 0.00 | 39 | 1018.5 |
| 20260906055727 | 78 | 169 | 3.0 | 7.0 | 0.00 | 0.00 | 0.00 | 39 | 1018.7 |
| 20260906055619 | 77 | 161 | 4.0 | 7.0 | 0.00 | 0.00 | 0.00 | 39 | 1018.7 |
| 20260906055532 | 78 | 158 | 4.0 | 7.0 | 0.00 | 0.00 | 0.00 | 39 | 1018.7 |
| 20260906055430 | 78 | 147 | 3.0 | 7.0 | 0.00 | 0.00 | 0.00 | 39 | 1018.7 |
| 20260906055325 | 78 | 143 | 2.0 | 7.0 | 0.00 | 0.00 | 0.00 | 39 | 1018.6 |
| 20260906055232 | 78 | 133 | 3.0 | 7.0 | 0.00 | 0.00 | 0.00 | 39 | 1018.7 |
| 20260906055138 | 78 | 153 | 2.0 | 6.0 | 0.00 | 0.00 | 0.00 | 39 | 1018.6 |
| 20260906055042 | 78 | 148 | 1.0 | 6.0 | 0.00 | 0.00 | 0.00 | 38 | 1018.6 |
| 20260906054922 | 78 | 184 | 2.0 | 6.0 | 0.00 | 0.00 | 0.00 | 38 | 1018.6 |
| 20260906054843 | 78 | 143 | 2.0 | 7.0 | 0.00 | 0.00 | 0.00 | 38 | 1018.7 |
| 20260906054737 | 78 | 149 | 2.0 | 8.0 | 0.00 | 0.00 | 0.00 | 38 | 1018.6 |
| 20260906054652 | 78 | 167 | 2.0 | 8.0 | 0.00 | 0.00 | 0.00 | 38 | 1018.6 |
| 20260906054627 | 78 | 113 | 3.0 | 8.0 | 0.00 | 0.00 | 0.00 | 38 | 1018.6 |
| 20260906054425 | 78 | 98 | 3.0 | 9.0 | 0.00 | 0.00 | 0.00 | 38 | 1018.6 |
| 20260906054332 | 78 | 121 | 2.0 | 14.0 | 0.00 | 0.00 | 0.00 | 38 | 1018.6 |
| 20260906054227 | 78 | 100 | 1.0 | 14.0 | 0.00 | 0.00 | 0.00 | 38 | 1018.4 |
| 20260906054116 | 78 | 150 | 3.0 | 14.0 | 0.00 | 0.00 | 0.00 | 37 | 1018.5 |
| 20260906054033 | 78 | 141 | 5.0 | 14.0 | 0.00 | 0.00 | 0.00 | 37 | 1018.5 |
| 20260906053927 | 78 | 175 | 5.0 | 14.0 | 0.00 | 0.00 | 0.00 | 37 | 1018.5 |
| 20260906053818 | 79 | 143 | 5.0 | 14.0 | 0.00 | 0.00 | 0.00 | 37 | 1018.5 |
| 20260906053728 | 79 | 94 | 7.0 | 14.0 | 0.00 | 0.00 | 0.00 | 37 | 1018.6 |
| 20260906053640 | 79 | 153 | 7.0 | 14.0 | 0.00 | 0.00 | 0.00 | 37 | 1018.6 |
| 20260906053545 | 79 | 144 | 4.0 | 10.0 | 0.00 | 0.00 | 0.00 | 36 | 1018.6 |
| 20260906053415 | 79 | 169 | 5.0 | 10.0 | 0.00 | 0.00 | 0.00 | 36 | 1018.6 |
| 20260906053334 | 79 | 178 | 6.0 | 10.0 | 0.00 | 0.00 | 0.00 | 36 | 1018.7 |
| 20260906053245 | 79 | 169 | 6.0 | 11.0 | 0.00 | 0.00 | 0.00 | 36 | 1018.6 |
| 20260906053159 | 79 | 215 | 6.0 | 10.0 | 0.00 | 0.00 | 0.00 | 36 | 1018.6 |
| 20260906053148 | 79 | 164 | 7.0 | 10.0 | 0.00 | 0.00 | 0.00 | 35 | 1018.7 |
| 20260906052941 | 79 | 180 | 6.0 | 9.0 | 0.00 | 0.00 | 0.00 | 35 | 1018.6 |
| 20260906052828 | 79 | 157 | 6.0 | 9.0 | 0.00 | 0.00 | 0.00 | 35 | 1018.6 |
| 20260906052738 | 79 | 183 | 5.0 | 9.0 | 0.00 | 0.00 | 0.00 | 35 | 1018.6 |
| 20260906052628 | 80 | 157 | 2.0 | 9.0 | 0.00 | 0.00 | 0.00 | 35 | 1018.6 |
| 20260906052528 | 80 | 215 | 1.0 | 9.0 | 0.00 | 0.00 | 0.00 | 34 | 1018.6 |
| 20260906052441 | 80 | 223 | 3.0 | 9.0 | 0.00 | 0.00 | 0.00 | 34 | 1018.6 |
| 20260906052318 | 80 | 182 | 4.0 | 10.0 | 0.00 | 0.00 | 0.00 | 34 | 1018.6 |
| 20260906052230 | 80 | 171 | 5.0 | 10.0 | 0.00 | 0.00 | 0.00 | 34 | 1018.6 |
| 20260906052125 | 80 | 178 | 6.0 | 10.0 | 0.00 | 0.00 | 0.00 | 34 | 1018.6 |
| 20260906052028 | 80 | 151 | 6.0 | 10.0 | 0.00 | 0.00 | 0.00 | 34 | 1018.5 |
| 20260906051933 | 80 | 165 | 5.0 | 10.0 | 0.00 | 0.00 | 0.00 | 34 | 1018.5 |
| 20260906051843 | 80 | 194 | 5.0 | 10.0 | 0.00 | 0.00 | 0.00 | 34 | 1018.6 |
| 20260906051725 | 80 | 169 | 6.0 | 10.0 | 0.00 | 0.00 | 0.00 | 34 | 1018.5 |
| 20260906051657 | 80 | 161 | 6.0 | 10.0 | 0.00 | 0.00 | 0.00 | 34 | 1018.6 |
| 20260906051640 | 80 | 157 | 5.0 | 10.0 | 0.00 | 0.00 | 0.00 | 34 | 1018.5 |
| 20260906051437 | 80 | 170 | 4.0 | 8.0 | 0.00 | 0.00 | 0.00 | 34 | 1018.6 |
| 20260906051325 | 80 | 167 | 4.0 | 8.0 | 0.00 | 0.00 | 0.00 | 34 | 1018.6 |
| 20260906051227 | 80 | 165 | 3.0 | 8.0 | 0.00 | 0.00 | 0.00 | 34 | 1018.6 |
| 20260906051124 | 80 | 111 | 3.0 | 5.0 | 0.00 | 0.00 | 0.00 | 34 | 1018.7 |
| 20260906051041 | 80 | 139 | 3.0 | 5.0 | 0.00 | 0.00 | 0.00 | 34 | 1018.8 |
| 20260906050927 | 79 | 174 | 3.0 | 5.0 | 0.00 | 0.00 | 0.00 | 34 | 1018.8 |
| 20260906050842 | 79 | 172 | 3.0 | 6.0 | 0.00 | 0.00 | 0.00 | 34 | 1018.8 |
| 20260906050721 | 79 | 186 | 4.0 | 6.0 | 0.00 | 0.00 | 0.00 | 34 | 1018.9 |
| 20260906050618 | 79 | 167 | 3.0 | 6.0 | 0.00 | 0.00 | 0.00 | 34 | 1018.9 |
| 20260906050519 | 79 | 178 | 3.0 | 5.0 | 0.00 | 0.00 | 0.00 | 34 | 1019.0 |
| 20260906050443 | 79 | 192 | 2.0 | 4.0 | 0.00 | 0.00 | 0.00 | 34 | 1018.9 |
| 20260906050319 | 79 | 208 | 2.0 | 6.0 | 0.00 | 0.00 | 0.00 | 34 | 1018.9 |
| 20260906050232 | 79 | 200 | 2.0 | 6.0 | 0.00 | 0.00 | 0.00 | 34 | 1019.0 |
| 20260906050222 | 79 | 202 | 1.0 | 6.0 | 0.00 | 0.00 | 0.00 | 34 | 1019.0 |
| 20260906050156 | 80 | 234 | 2.0 | 6.0 | 0.00 | 0.00 | 0.00 | 34 | 1019.1 |
| 20260906045924 | 79 | 223 | 2.0 | 6.0 | 0.00 | 0.00 | 0.00 | 34 | 1019.0 |
| 20260906045828 | 79 | 240 | 2.0 | 6.0 | 0.00 | 0.00 | 0.00 | 34 | 1019.0 |
| 20260906045734 | 79 | 188 | 3.0 | 6.0 | 0.00 | 0.00 | 0.00 | 34 | 1019.1 |
| 20260906045643 | 79 | 153 | 4.0 | 6.0 | 0.00 | 0.00 | 0.00 | 34 | 1019.1 |
| 20260906045520 | 79 | 167 | 3.0 | 6.0 | 0.00 | 0.00 | 0.00 | 34 | 1019.1 |
| 20260906045429 | 79 | 167 | 2.0 | 4.0 | 0.00 | 0.00 | 0.00 | 34 | 1019.1 |
| 20260906045343 | 79 | 170 | 2.0 | 3.0 | 0.00 | 0.00 | 0.00 | 34 | 1019.1 |
| 20260906045236 | 79 | 193 | 2.0 | 3.0 | 0.00 | 0.00 | 0.00 | 34 | 1019.0 |
| 20260906045142 | 79 | 185 | 1.0 | 3.0 | 0.00 | 0.00 | 0.00 | 34 | 1019.1 |
| 20260906045042 | 79 | 192 | 1.0 | 3.0 | 0.00 | 0.00 | 0.00 | 34 | 1019.0 |
| 20260906044940 | 79 | 188 | 0.0 | 3.0 | 0.00 | 0.00 | 0.00 | 34 | 1019.1 |
| 20260906044832 | 79 | 188 | 0.0 | 3.0 | 0.00 | 0.00 | 0.00 | 34 | 1019.1 |
| 20260906044736 | 79 | 145 | 0.0 | 3.0 | 0.00 | 0.00 | 0.00 | 34 | 1019.1 |
| 20260906044651 | 79 | 124 | 1.0 | 3.0 | 0.00 | 0.00 | 0.00 | 34 | 1019.0 |
| 20260906044634 | 79 | 122 | 1.0 | 3.0 | 0.00 | 0.00 | 0.00 | 34 | 1019.1 |
| 20260906044429 | 79 | 115 | 1.0 | 3.0 | 0.00 | 0.00 | 0.00 | 34 | 1019.1 |
| 20260906044343 | 79 | 112 | 1.0 | 3.0 | 0.00 | 0.00 | 0.00 | 35 | 1019.2 |
| 20260906044218 | 79 | 104 | 0.0 | 2.0 | 0.00 | 0.00 | 0.00 | 34 | 1019.1 |
| 20260906044134 | 79 | 53 | 0.0 | 2.0 | 0.00 | 0.00 | 0.00 | 34 | 1019.1 |
| 20260906044032 | 79 | 5 | 0.0 | 0.0 | 0.00 | 0.00 | 0.00 | 35 | 1019.1 |
| 20260906043930 | 79 | 348 | 0.0 | 0.0 | 0.00 | 0.00 | 0.00 | 35 | 1019.1 |
| 20260906043816 | 79 | 342 | 0.0 | 1.0 | 0.00 | 0.00 | 0.00 | 34 | 1019.1 |
| 20260906043745 | 79 | 338 | 0.0 | 1.0 | 0.00 | 0.00 | 0.00 | 34 | 1019.0 |
| 20260906043640 | 79 | 338 | 0.0 | 3.0 | 0.00 | 0.00 | 0.00 | 34 | 1019.1 |
| 20260906043520 | 79 | 326 | 0.0 | 3.0 | 0.00 | 0.00 | 0.00 | 35 | 1019.0 |
| 20260906043433 | 79 | 324 | 0.0 | 3.0 | 0.00 | 0.00 | 0.00 | 35 | 1019.0 |
| 20260906043334 | 79 | 325 | 0.0 | 3.0 | 0.00 | 0.00 | 0.00 | 35 | 1019.1 |
| 20260906043231 | 79 | 327 | 0.0 | 3.0 | 0.00 | 0.00 | 0.00 | 35 | 1019.1 |
| 20260906043152 | 79 | 329 | 0.0 | 3.0 | 0.00 | 0.00 | 0.00 | 34 | 1019.1 |
| 20260906043148 | 79 | 329 | 0.0 | 3.0 | 0.00 | 0.00 | 0.00 | 35 | 1018.9 |
| 20260906042924 | 79 | 325 | 1.0 | 3.0 | 0.00 | 0.00 | 0.00 | 35 | 1018.9 |
| 20260906042832 | 79 | 309 | 1.0 | 3.0 | 0.00 | 0.00 | 0.00 | 35 | 1018.8 |
| 20260906042728 | 79 | 324 | 0.0 | 3.0 | 0.00 | 0.00 | 0.00 | 35 | 1018.8 |
| 20260906042643 | 79 | 76 | 0.0 | 3.0 | 0.00 | 0.00 | 0.00 | 35 | 1018.8 |
| 20260906042520 | 79 | 99 | 0.0 | 6.0 | 0.00 | 0.00 | 0.00 | 35 | 1018.6 |
| 20260906042329 | 79 | 92 | 1.0 | 9.0 | 0.00 | 0.00 | 0.00 | 35 | 1018.9 |
| 20260906042220 | 79 | 40 | 0.0 | 9.0 | 0.00 | 0.00 | 0.00 | 35 | 1018.8 |
| 20260906042138 | 79 | 46 | 0.0 | 9.0 | 0.00 | 0.00 | 0.00 | 35 | 1018.8 |
| 20260906042026 | 79 | 45 | 0.0 | 9.0 | 0.00 | 0.00 | 0.00 | 35 | 1018.8 |
| 20260906041923 | 79 | 52 | 0.0 | 9.0 | 0.00 | 0.00 | 0.00 | 35 | 1018.8 |
| 20260906041841 | 79 | 71 | 1.0 | 9.0 | 0.00 | 0.00 | 0.00 | 34 | 1018.8 |
| 20260906041726 | 79 | 57 | 2.0 | 9.0 | 0.00 | 0.00 | 0.00 | 35 | 1018.8 |
| 20260906041723 | 79 | 39 | 3.0 | 9.0 | 0.00 | 0.00 | 0.00 | 34 | 1018.7 |
| 20260906041712 | 79 | 72 | 3.0 | 9.0 | 0.00 | 0.00 | 0.00 | 34 | 1018.7 |
| 20260906041431 | 79 | 95 | 2.0 | 5.0 | 0.00 | 0.00 | 0.00 | 34 | 1018.7 |
| 20260906041324 | 80 | 91 | 2.0 | 5.0 | 0.00 | 0.00 | 0.00 | 34 | 1018.7 |
| 20260906041241 | 80 | 45 | 2.0 | 5.0 | 0.00 | 0.00 | 0.00 | 34 | 1018.5 |
| 20260906041125 | 80 | 68 | 2.0 | 5.0 | 0.00 | 0.00 | 0.00 | 34 | 1018.3 |
| 20260906041028 | 80 | 44 | 2.0 | 4.0 | 0.00 | 0.00 | 0.00 | 33 | 1018.3 |
| 20260906040933 | 80 | 77 | 2.0 | 4.0 | 0.00 | 0.00 | 0.00 | 33 | 1018.2 |
| 20260906040843 | 80 | 34 | 2.0 | 4.0 | 0.00 | 0.00 | 0.00 | 33 | 1018.1 |
| 20260906040738 | 80 | 14 | 1.0 | 4.0 | 0.00 | 0.00 | 0.00 | 33 | 1017.9 |
| 20260906040625 | 80 | 10 | 0.0 | 4.0 | 0.00 | 0.00 | 0.00 | 33 | 1017.9 |
| 20260906040535 | 80 | 321 | 0.0 | 4.0 | 0.00 | 0.00 | 0.00 | 33 | 1017.8 |
| 20260906040434 | 80 | 315 | 1.0 | 5.0 | 0.00 | 0.00 | 0.00 | 33 | 1017.9 |
| 20260906040339 | 80 | 317 | 1.0 | 5.0 | 0.00 | 0.00 | 0.00 | 33 | 1017.7 |
| 20260906040220 | 80 | 11 | 1.0 | 5.0 | 0.00 | 0.00 | 0.00 | 33 | 1017.7 |
| 20260906040215 | 80 | 267 | 2.0 | 5.0 | 0.00 | 0.00 | 0.00 | 33 | 1017.7 |
| 20260906040127 | 80 | 302 | 2.0 | 8.0 | 0.00 | 0.00 | 0.00 | 33 | 1017.7 |
| 20260906035936 | 80 | 294 | 2.0 | 9.0 | 0.00 | 0.00 | 0.00 | 33 | 1017.7 |
| 20260906035833 | 80 | 214 | 3.0 | 9.0 | 0.00 | 0.00 | 0.00 | 33 | 1017.5 |
| 20260906035743 | 80 | 284 | 3.0 | 9.0 | 0.00 | 0.00 | 0.00 | 33 | 1017.5 |
| 20260906035637 | 80 | 288 | 2.0 | 9.0 | 0.00 | 0.00 | 0.00 | 33 | 1017.5 |
| 20260906035531 | 80 | 301 | 2.0 | 9.0 | 0.00 | 0.00 | 0.00 | 33 | 1017.5 |
| 20260906035425 | 81 | 314 | 3.0 | 9.0 | 0.00 | 0.00 | 0.00 | 33 | 1017.5 |
| 20260906035335 | 81 | 280 | 5.0 | 9.0 | 0.00 | 0.00 | 0.00 | 32 | 1017.5 |
| 20260906035218 | 81 | 279 | 6.0 | 9.0 | 0.00 | 0.00 | 0.00 | 32 | 1017.5 |
| 20260906035119 | 81 | 276 | 6.0 | 9.0 | 0.00 | 0.00 | 0.00 | 33 | 1017.4 |
| 20260906035019 | 81 | 275 | 5.0 | 8.0 | 0.00 | 0.00 | 0.00 | 32 | 1017.4 |
| 20260906034930 | 81 | 277 | 3.0 | 8.0 | 0.00 | 0.00 | 0.00 | 32 | 1017.4 |
| 20260906034835 | 81 | 267 | 3.0 | 8.0 | 0.00 | 0.00 | 0.00 | 33 | 1017.5 |
| 20260906034738 | 81 | 300 | 3.0 | 8.0 | 0.00 | 0.00 | 0.00 | 32 | 1017.5 |
| 20260906034652 | 81 | 264 | 4.0 | 8.0 | 0.00 | 0.00 | 0.00 | 33 | 1017.4 |
| 20260906034643 | 81 | 305 | 4.0 | 8.0 | 0.00 | 0.00 | 0.00 | 32 | 1017.5 |
| 20260906034443 | 81 | 278 | 4.0 | 8.0 | 0.00 | 0.00 | 0.00 | 32 | 1017.4 |
| 20260906034326 | 81 | 272 | 3.0 | 6.0 | 0.00 | 0.00 | 0.00 | 32 | 1017.5 |
| 20260906034230 | 81 | 278 | 2.0 | 6.0 | 0.00 | 0.00 | 0.00 | 32 | 1017.4 |
| 20260906034145 | 81 | 292 | 2.0 | 5.0 | 0.00 | 0.00 | 0.00 | 32 | 1017.5 |
| 20260906034041 | 81 | 285 | 3.0 | 5.0 | 0.00 | 0.00 | 0.00 | 32 | 1017.4 |
| 20260906033924 | 81 | 292 | 2.0 | 5.0 | 0.00 | 0.00 | 0.00 | 32 | 1017.4 |
| 20260906033824 | 81 | 302 | 2.0 | 4.0 | 0.00 | 0.00 | 0.00 | 32 | 1017.5 |
| 20260906033739 | 81 | 296 | 2.0 | 4.0 | 0.00 | 0.00 | 0.00 | 32 | 1017.4 |
| 20260906033642 | 81 | 281 | 2.0 | 4.0 | 0.00 | 0.00 | 0.00 | 32 | 1017.4 |
| 20260906033534 | 81 | 257 | 2.0 | 4.0 | 0.00 | 0.00 | 0.00 | 32 | 1017.5 |
| 20260906033418 | 81 | 279 | 2.0 | 4.0 | 0.00 | 0.00 | 0.00 | 32 | 1017.4 |
| 20260906033329 | 81 | 266 | 2.0 | 4.0 | 0.00 | 0.00 | 0.00 | 32 | 1017.5 |
| 20260906033230 | 81 | 287 | 1.0 | 4.0 | 0.00 | 0.00 | 0.00 | 32 | 1017.5 |
| 20260906033203 | 81 | 261 | 1.0 | 4.0 | 0.00 | 0.00 | 0.00 | 32 | 1017.5 |
| 20260906033143 | 81 | 321 | 1.0 | 4.0 | 0.00 | 0.00 | 0.00 | 32 | 1017.4 |
| 20260906032943 | 81 | 290 | 1.0 | 4.0 | 0.00 | 0.00 | 0.00 | 31 | 1017.4 |
| 20260906032819 | 81 | 321 | 1.0 | 5.0 | 0.00 | 0.00 | 0.00 | 32 | 1017.5 |
| 20260906032738 | 81 | 298 | 1.0 | 5.0 | 0.00 | 0.00 | 0.00 | 31 | 1017.4 |
| 20260906032644 | 81 | 309 | 1.0 | 5.0 | 0.00 | 0.00 | 0.00 | 31 | 1017.4 |
| 20260906032537 | 81 | 273 | 1.0 | 5.0 | 0.00 | 0.00 | 0.00 | 31 | 1017.5 |
| 20260906032428 | 81 | 279 | 2.0 | 6.0 | 0.00 | 0.00 | 0.00 | 31 | 1017.4 |
| 20260906032325 | 82 | 310 | 3.0 | 6.0 | 0.00 | 0.00 | 0.00 | 31 | 1017.5 |
| 20260906032243 | 82 | 287 | 2.0 | 6.0 | 0.00 | 0.00 | 0.00 | 31 | 1017.4 |
| 20260906032135 | 82 | 284 | 3.0 | 6.0 | 0.00 | 0.00 | 0.00 | 31 | 1017.4 |
| 20260906032019 | 82 | 275 | 3.0 | 6.0 | 0.00 | 0.00 | 0.00 | 32 | 1017.4 |
| 20260906031919 | 82 | 314 | 3.0 | 6.0 | 0.00 | 0.00 | 0.00 | 31 | 1017.4 |
| 20260906031824 | 82 | 302 | 3.0 | 6.0 | 0.00 | 0.00 | 0.00 | 31 | 1017.4 |
| 20260906031725 | 82 | 307 | 3.0 | 6.0 | 0.00 | 0.00 | 0.00 | 31 | 1017.5 |
| 20260906031650 | 82 | 321 | 2.0 | 4.0 | 0.00 | 0.00 | 0.00 | 31 | 1017.5 |
| 20260906031630 | 82 | 311 | 2.0 | 4.0 | 0.00 | 0.00 | 0.00 | 31 | 1017.4 |
| 20260906031423 | 82 | 283 | 2.0 | 4.0 | 0.00 | 0.00 | 0.00 | 31 | 1017.4 |
| 20260906031330 | 82 | 296 | 1.0 | 3.0 | 0.00 | 0.00 | 0.00 | 31 | 1017.4 |
| 20260906031241 | 82 | 298 | 1.0 | 3.0 | 0.00 | 0.00 | 0.00 | 31 | 1017.4 |
| 20260906031127 | 82 | 253 | 2.0 | 3.0 | 0.00 | 0.00 | 0.00 | 31 | 1017.4 |
| 20260906031032 | 82 | 257 | 2.0 | 4.0 | 0.00 | 0.00 | 0.00 | 31 | 1017.3 |
| 20260906030942 | 82 | 274 | 1.0 | 4.0 | 0.00 | 0.00 | 0.00 | 31 | 1017.3 |
| 20260906030836 | 82 | 280 | 1.0 | 4.0 | 0.00 | 0.00 | 0.00 | 31 | 1017.2 |
| 20260906030734 | 82 | 292 | 1.0 | 4.0 | 0.00 | 0.00 | 0.00 | 31 | 1017.2 |
| 20260906030639 | 82 | 313 | 0.0 | 4.0 | 0.00 | 0.00 | 0.00 | 31 | 1017.3 |
| 20260906030542 | 82 | 290 | 0.0 | 4.0 | 0.00 | 0.00 | 0.00 | 31 | 1017.2 |
| 20260906030422 | 82 | 300 | 0.0 | 4.0 | 0.00 | 0.00 | 0.00 | 31 | 1017.2 |
| 20260906030332 | 82 | 306 | 1.0 | 4.0 | 0.00 | 0.00 | 0.00 | 31 | 1017.2 |
| 20260906030228 | 82 | 317 | 2.0 | 4.0 | 0.00 | 0.00 | 0.00 | 30 | 1017.2 |
| 20260906030220 | 82 | 343 | 2.0 | 4.0 | 0.00 | 0.00 | 0.00 | 30 | 1017.2 |
| 20260906030207 | 82 | 5 | 2.0 | 4.0 | 0.00 | 0.00 | 0.00 | 30 | 1017.1 |
| 20260906025941 | 82 | 360 | 1.0 | 4.0 | 0.00 | 0.00 | 0.00 | 30 | 1017.2 |
| 20260906025831 | 82 | 344 | 1.0 | 4.0 | 0.00 | 0.00 | 0.00 | 30 | 1017.2 |
| 20260906025733 | 82 | 329 | 1.0 | 3.0 | 0.00 | 0.00 | 0.00 | 30 | 1017.0 |
| 20260906025635 | 82 | 343 | 1.0 | 3.0 | 0.00 | 0.00 | 0.00 | 30 | 1017.0 |
| 20260906025524 | 82 | 351 | 1.0 | 3.0 | 0.00 | 0.00 | 0.00 | 30 | 1016.8 |
| 20260906025443 | 83 | 9 | 1.0 | 3.0 | 0.00 | 0.00 | 0.00 | 30 | 1016.7 |
| 20260906025343 | 83 | 12 | 1.0 | 3.0 | 0.00 | 0.00 | 0.00 | 30 | 1016.7 |
| 20260906025232 | 83 | 5 | 1.0 | 3.0 | 0.00 | 0.00 | 0.00 | 30 | 1016.7 |
| 20260906025126 | 83 | 5 | 2.0 | 3.0 | 0.00 | 0.00 | 0.00 | 30 | 1016.7 |
| 20260906025024 | 83 | 5 | 2.0 | 3.0 | 0.00 | 0.00 | 0.00 | 30 | 1016.6 |
| 20260906024943 | 83 | 352 | 2.0 | 3.0 | 0.00 | 0.00 | 0.00 | 29 | 1016.6 |
| 20260906024840 | 83 | 13 | 1.0 | 5.0 | 0.00 | 0.00 | 0.00 | 29 | 1016.6 |
| 20260906024719 | 83 | 11 | 1.0 | 5.0 | 0.00 | 0.00 | 0.00 | 29 | 1016.6 |
| 20260906024642 | 84 | 355 | 0.0 | 5.0 | 0.00 | 0.00 | 0.00 | 29 | 1016.5 |
| 20260906024433 | 84 | 344 | 0.0 | 5.0 | 0.00 | 0.00 | 0.00 | 29 | 1016.6 |
| 20260906024322 | 84 | 330 | 1.0 | 5.0 | 0.00 | 0.00 | 0.00 | 28 | 1016.5 |
| 20260906024218 | 84 | 298 | 2.0 | 5.0 | 0.00 | 0.00 | 0.00 | 28 | 1016.5 |
| 20260906024124 | 84 | 273 | 3.0 | 5.0 | 0.00 | 0.00 | 0.00 | 29 | 1016.5 |
| 20260906024024 | 84 | 296 | 3.0 | 7.0 | 0.00 | 0.00 | 0.00 | 28 | 1016.5 |
| 20260906023936 | 84 | 310 | 2.0 | 9.0 | 0.00 | 0.00 | 0.00 | 28 | 1016.6 |
| 20260906023842 | 84 | 303 | 2.0 | 9.0 | 0.00 | 0.00 | 0.00 | 28 | 1016.5 |
| 20260906023742 | 84 | 296 | 3.0 | 9.0 | 0.00 | 0.00 | 0.00 | 28 | 1016.5 |
| 20260906023625 | 84 | 306 | 3.0 | 9.0 | 0.00 | 0.00 | 0.00 | 28 | 1016.6 |
| 20260906023531 | 84 | 306 | 2.0 | 9.0 | 0.00 | 0.00 | 0.00 | 28 | 1016.5 |
| 20260906023427 | 84 | 277 | 2.0 | 9.0 | 0.00 | 0.00 | 0.00 | 28 | 1016.5 |
| 20260906023330 | 84 | 267 | 3.0 | 9.0 | 0.00 | 0.00 | 0.00 | 28 | 1016.6 |
| 20260906023243 | 84 | 280 | 4.0 | 9.0 | 0.00 | 0.00 | 0.00 | 28 | 1016.5 |
| 20260906023149 | 84 | 277 | 4.0 | 9.0 | 0.00 | 0.00 | 0.00 | 28 | 1016.6 |
| 20260906023141 | 84 | 302 | 4.0 | 7.0 | 0.00 | 0.00 | 0.00 | 28 | 1016.7 |
| 20260906022921 | 84 | 284 | 3.0 | 7.0 | 0.00 | 0.00 | 0.00 | 28 | 1016.7 |
| 20260906022835 | 84 | 239 | 3.0 | 5.0 | 0.00 | 0.00 | 0.00 | 28 | 1016.6 |
| 20260906022725 | 84 | 290 | 3.0 | 7.0 | 0.00 | 0.00 | 0.00 | 28 | 1016.7 |
| 20260906022619 | 84 | 269 | 3.0 | 7.0 | 0.00 | 0.00 | 0.00 | 28 | 1016.7 |
| 20260906022542 | 84 | 304 | 2.0 | 7.0 | 0.00 | 0.00 | 0.00 | 28 | 1016.7 |
| 20260906022429 | 84 | 251 | 2.0 | 7.0 | 0.00 | 0.00 | 0.00 | 28 | 1016.7 |
| 20260906022323 | 84 | 276 | 3.0 | 7.0 | 0.00 | 0.00 | 0.00 | 28 | 1016.7 |
| 20260906022240 | 84 | 260 | 2.0 | 8.0 | 0.00 | 0.00 | 0.00 | 28 | 1016.7 |
| 20260906022117 | 84 | 279 | 2.0 | 8.0 | 0.00 | 0.00 | 0.00 | 28 | 1016.7 |
| 20260906022036 | 84 | 293 | 3.0 | 8.0 | 0.00 | 0.00 | 0.00 | 28 | 1016.7 |
| 20260906021927 | 84 | 297 | 3.0 | 8.0 | 0.00 | 0.00 | 0.00 | 28 | 1016.7 |
| 20260906021825 | 84 | 269 | 1.0 | 8.0 | 0.00 | 0.00 | 0.00 | 28 | 1016.7 |
| 20260906021724 | 84 | 268 | 0.0 | 8.0 | 0.00 | 0.00 | 0.00 | 28 | 1016.7 |
| 20260906021649 | 84 | 257 | 1.0 | 8.0 | 0.00 | 0.00 | 0.00 | 28 | 1016.6 |
| 20260906021608 | 84 | 269 | 3.0 | 8.0 | 0.00 | 0.00 | 0.00 | 28 | 1016.7 |
| 20260906021426 | 84 | 292 | 3.0 | 8.0 | 0.00 | 0.00 | 0.00 | 28 | 1016.5 |
| 20260906021333 | 84 | 267 | 3.0 | 8.0 | 0.00 | 0.00 | 0.00 | 28 | 1016.6 |
| 20260906021217 | 85 | 252 | 4.0 | 8.0 | 0.00 | 0.00 | 0.00 | 28 | 1016.5 |
| 20260906021140 | 85 | 291 | 4.0 | 8.0 | 0.00 | 0.00 | 0.00 | 28 | 1016.5 |
| 20260906021035 | 85 | 284 | 3.0 | 7.0 | 0.00 | 0.00 | 0.00 | 28 | 1016.5 |
| 20260906020916 | 85 | 246 | 3.0 | 7.0 | 0.00 | 0.00 | 0.00 | 28 | 1016.5 |
| 20260906020817 | 85 | 214 | 2.0 | 7.0 | 0.00 | 0.00 | 0.00 | 28 | 1016.5 |
| 20260906020732 | 85 | 242 | 2.0 | 7.0 | 0.00 | 0.00 | 0.00 | 28 | 1016.4 |
| 20260906020631 | 85 | 260 | 2.0 | 7.0 | 0.00 | 0.00 | 0.00 | 28 | 1016.5 |
| 20260906020518 | 85 | 246 | 3.0 | 7.0 | 0.00 | 0.00 | 0.00 | 28 | 1016.5 |
| 20260906020433 | 85 | 254 | 3.0 | 7.0 | 0.00 | 0.00 | 0.00 | 28 | 1016.4 |
| 20260906020328 | 85 | 234 | 2.0 | 7.0 | 0.00 | 0.00 | 0.00 | 27 | 1016.4 |
| 20260906020224 | 85 | 150 | 2.0 | 7.0 | 0.00 | 0.00 | 0.00 | 28 | 1016.5 |
| 20260906020213 | 85 | 204 | 1.0 | 7.0 | 0.00 | 0.00 | 0.00 | 27 | 1016.4 |
| 20260906020124 | 85 | 180 | 2.0 | 7.0 | 0.00 | 0.00 | 0.00 | 27 | 1016.5 |
| 20260906015917 | 85 | 193 | 4.0 | 7.0 | 0.00 | 0.00 | 0.00 | 27 | 1016.5 |
| 20260906015827 | 85 | 217 | 4.0 | 8.0 | 0.00 | 0.00 | 0.00 | 28 | 1016.4 |
| 20260906015722 | 85 | 182 | 4.0 | 8.0 | 0.00 | 0.00 | 0.00 | 27 | 1016.5 |
| 20260906015619 | 85 | 186 | 4.0 | 8.0 | 0.00 | 0.00 | 0.00 | 27 | 1016.5 |
| 20260906015542 | 85 | 205 | 4.0 | 9.0 | 0.00 | 0.00 | 0.00 | 27 | 1016.5 |
| 20260906015433 | 85 | 209 | 4.0 | 9.0 | 0.00 | 0.00 | 0.00 | 27 | 1016.5 |
| 20260906015317 | 85 | 217 | 3.0 | 9.0 | 0.00 | 0.00 | 0.00 | 27 | 1016.5 |
| 20260906015233 | 85 | 180 | 4.0 | 9.0 | 0.00 | 0.00 | 0.00 | 27 | 1016.5 |
| 20260906015129 | 85 | 198 | 4.0 | 9.0 | 0.00 | 0.00 | 0.00 | 27 | 1016.3 |
| 20260906015024 | 85 | 199 | 4.0 | 9.0 | 0.00 | 0.00 | 0.00 | 27 | 1016.5 |
| 20260906014940 | 85 | 250 | 3.0 | 9.0 | 0.00 | 0.00 | 0.00 | 27 | 1016.3 |
| 20260906014833 | 85 | 169 | 4.0 | 9.0 | 0.00 | 0.00 | 0.00 | 27 | 1016.4 |
| 20260906014731 | 86 | 226 | 5.0 | 9.0 | 0.00 | 0.00 | 0.00 | 27 | 1016.4 |
| 20260906014705 | 86 | 218 | 5.0 | 9.0 | 0.00 | 0.00 | 0.00 | 27 | 1016.3 |
| 20260906014657 | 86 | 242 | 5.0 | 9.0 | 0.00 | 0.00 | 0.00 | 27 | 1016.3 |
| 20260906014420 | 86 | 186 | 5.0 | 12.0 | 0.00 | 0.00 | 0.00 | 26 | 1016.3 |
| 20260906014317 | 86 | 199 | 5.0 | 12.0 | 0.00 | 0.00 | 0.00 | 26 | 1016.3 |
| 20260906014220 | 86 | 186 | 3.0 | 12.0 | 0.00 | 0.00 | 0.00 | 26 | 1016.3 |
| 20260906014125 | 86 | 235 | 2.0 | 12.0 | 0.00 | 0.00 | 0.00 | 27 | 1016.2 |
| 20260906014034 | 86 | 213 | 4.0 | 12.0 | 0.00 | 0.00 | 0.00 | 26 | 1016.1 |
| 20260906013920 | 86 | 201 | 6.0 | 12.0 | 0.00 | 0.00 | 0.00 | 26 | 1016.0 |
| 20260906013842 | 86 | 245 | 6.0 | 12.0 | 0.00 | 0.00 | 0.00 | 26 | 1016.1 |
| 20260906013743 | 86 | 232 | 5.0 | 12.0 | 0.00 | 0.00 | 0.00 | 26 | 1016.1 |
| 20260906013645 | 86 | 180 | 6.0 | 12.0 | 0.00 | 0.00 | 0.00 | 26 | 1016.0 |
| 20260906013526 | 86 | 240 | 4.0 | 11.0 | 0.00 | 0.00 | 0.00 | 26 | 1016.1 |
| 20260906013444 | 87 | 255 | 3.0 | 9.0 | 0.00 | 0.00 | 0.00 | 26 | 1016.0 |
| 20260906013323 | 87 | 248 | 3.0 | 9.0 | 0.00 | 0.00 | 0.00 | 26 | 1016.0 |
| 20260906013235 | 87 | 252 | 3.0 | 11.0 | 0.00 | 0.00 | 0.00 | 26 | 1016.0 |
| 20260906013203 | 87 | 251 | 4.0 | 11.0 | 0.00 | 0.00 | 0.00 | 26 | 1015.9 |
| 20260906013148 | 87 | 276 | 3.0 | 12.0 | 0.00 | 0.00 | 0.00 | 25 | 1016.0 |
| 20260906012917 | 87 | 276 | 3.0 | 12.0 | 0.00 | 0.00 | 0.00 | 25 | 1016.0 |
| 20260906012827 | 87 | 267 | 3.0 | 12.0 | 0.00 | 0.00 | 0.00 | 25 | 1016.0 |
| 20260906012729 | 87 | 205 | 3.0 | 13.0 | 0.00 | 0.00 | 0.00 | 25 | 1016.0 |
| 20260906012619 | 87 | 202 | 3.0 | 16.0 | 0.00 | 0.00 | 0.00 | 25 | 1016.0 |
| 20260906012531 | 87 | 227 | 5.0 | 16.0 | 0.00 | 0.00 | 0.00 | 25 | 1016.0 |
| 20260906012438 | 87 | 233 | 7.0 | 16.0 | 0.00 | 0.00 | 0.00 | 25 | 1016.1 |
| 20260906012341 | 87 | 298 | 7.0 | 16.0 | 0.00 | 0.00 | 0.00 | 25 | 1016.1 |
| 20260906012233 | 88 | 272 | 8.0 | 16.0 | 0.00 | 0.00 | 0.00 | 25 | 1016.1 |
| 20260906012137 | 88 | 231 | 7.0 | 16.0 | 0.00 | 0.00 | 0.00 | 24 | 1016.1 |
| 20260906012032 | 88 | 269 | 6.0 | 16.0 | 0.00 | 0.00 | 0.00 | 24 | 1016.2 |
| 20260906011943 | 88 | 258 | 8.0 | 16.0 | 0.00 | 0.00 | 0.00 | 24 | 1016.1 |
| 20260906011832 | 88 | 248 | 9.0 | 16.0 | 0.00 | 0.00 | 0.00 | 24 | 1016.2 |
| 20260906011718 | 88 | 279 | 5.0 | 14.0 | 0.00 | 0.00 | 0.00 | 24 | 1016.2 |
| 20260906011656 | 88 | 305 | 5.0 | 13.0 | 0.00 | 0.00 | 0.00 | 23 | 1016.1 |
| 20260906011431 | 88 | 196 | 5.0 | 13.0 | 0.00 | 0.00 | 0.00 | 23 | 1016.2 |
| 20260906011326 | 88 | 236 | 5.0 | 13.0 | 0.00 | 0.00 | 0.00 | 23 | 1016.2 |
| 20260906011243 | 89 | 248 | 7.0 | 13.0 | 0.00 | 0.00 | 0.00 | 23 | 1016.1 |
| 20260906011142 | 89 | 293 | 8.0 | 13.0 | 0.00 | 0.00 | 0.00 | 23 | 1016.1 |
| 20260906011038 | 89 | 238 | 6.0 | 13.0 | 0.00 | 0.00 | 0.00 | 23 | 1016.1 |
| 20260906010938 | 89 | 244 | 4.0 | 12.0 | 0.00 | 0.00 | 0.00 | 23 | 1016.0 |
| 20260906010827 | 89 | 252 | 5.0 | 12.0 | 0.00 | 0.00 | 0.00 | 23 | 1016.0 |
| 20260906010739 | 89 | 236 | 5.0 | 12.0 | 0.00 | 0.00 | 0.00 | 23 | 1016.0 |
| 20260906010642 | 89 | 231 | 5.0 | 12.0 | 0.00 | 0.00 | 0.00 | 23 | 1016.0 |
| 20260906010527 | 89 | 244 | 6.0 | 12.0 | 0.00 | 0.00 | 0.00 | 23 | 1016.0 |
| 20260906010434 | 89 | 234 | 6.0 | 12.0 | 0.00 | 0.00 | 0.00 | 23 | 1016.0 |
| 20260906010335 | 89 | 279 | 7.0 | 11.0 | 0.00 | 0.00 | 0.00 | 23 | 1016.1 |
| 20260906010223 | 89 | 291 | 7.0 | 11.0 | 0.00 | 0.00 | 0.00 | 23 | 1016.0 |
| 20260906010201 | 89 | 260 | 6.0 | 9.0 | 0.00 | 0.00 | 0.00 | 23 | 1016.1 |
| 20260906010131 | 89 | 279 | 4.0 | 8.0 | 0.00 | 0.00 | 0.00 | 23 | 1016.1 |
| 20260906005921 | 89 | 265 | 3.0 | 6.0 | 0.00 | 0.00 | 0.00 | 23 | 1016.1 |
| 20260906005821 | 89 | 279 | 3.0 | 6.0 | 0.00 | 0.00 | 0.00 | 23 | 1016.1 |
| 20260906005728 | 89 | 263 | 3.0 | 6.0 | 0.00 | 0.00 | 0.00 | 23 | 1016.1 |
| 20260906005620 | 89 | 220 | 3.0 | 6.0 | 0.00 | 0.00 | 0.00 | 23 | 1016.1 |
| 20260906005539 | 89 | 220 | 3.0 | 6.0 | 0.00 | 0.00 | 0.00 | 23 | 1016.1 |
| 20260906005432 | 89 | 150 | 3.0 | 5.0 | 0.00 | 0.00 | 0.00 | 23 | 1016.1 |
| 20260906005321 | 89 | 207 | 2.0 | 6.0 | 0.00 | 0.00 | 0.00 | 23 | 1016.1 |
| 20260906005237 | 89 | 153 | 2.0 | 6.0 | 0.00 | 0.00 | 0.00 | 23 | 1016.1 |
| 20260906005124 | 89 | 175 | 1.0 | 6.0 | 0.00 | 0.00 | 0.00 | 23 | 1016.1 |
| 20260906005021 | 89 | 171 | 2.0 | 6.0 | 0.00 | 0.00 | 0.00 | 23 | 1016.2 |
| 20260906004935 | 89 | 162 | 2.0 | 6.0 | 0.00 | 0.00 | 0.00 | 23 | 1016.1 |
| 20260906004823 | 89 | 178 | 2.0 | 6.0 | 0.00 | 0.00 | 0.00 | 23 | 1016.2 |
| 20260906004727 | 89 | 200 | 3.0 | 6.0 | 0.00 | 0.00 | 0.00 | 23 | 1016.0 |
| 20260906004656 | 89 | 184 | 3.0 | 7.0 | 0.00 | 0.00 | 0.00 | 23 | 1016.1 |
| 20260906004627 | 89 | 178 | 3.0 | 8.0 | 0.00 | 0.00 | 0.00 | 23 | 1016.1 |
| 20260906004441 | 89 | 182 | 3.0 | 8.0 | 0.00 | 0.00 | 0.00 | 23 | 1016.2 |
| 20260906004338 | 89 | 159 | 2.0 | 8.0 | 0.00 | 0.00 | 0.00 | 22 | 1016.1 |
| 20260906004233 | 90 | 183 | 2.0 | 8.0 | 0.00 | 0.00 | 0.00 | 23 | 1016.2 |
| 20260906004142 | 90 | 178 | 3.0 | 8.0 | 0.00 | 0.00 | 0.00 | 23 | 1016.1 |
| 20260906004030 | 90 | 171 | 4.0 | 8.0 | 0.00 | 0.00 | 0.00 | 23 | 1016.1 |
| 20260906003926 | 90 | 170 | 5.0 | 8.0 | 0.00 | 0.00 | 0.00 | 22 | 1016.1 |
| 20260906003828 | 90 | 178 | 5.0 | 8.0 | 0.00 | 0.00 | 0.00 | 22 | 1016.2 |
| 20260906003726 | 90 | 155 | 4.0 | 8.0 | 0.00 | 0.00 | 0.00 | 22 | 1016.2 |
| 20260906003637 | 90 | 219 | 5.0 | 8.0 | 0.00 | 0.00 | 0.00 | 22 | 1016.2 |
| 20260906003518 | 90 | 165 | 6.0 | 8.0 | 0.00 | 0.00 | 0.00 | 22 | 1016.1 |
| 20260906003435 | 90 | 167 | 5.0 | 8.0 | 0.00 | 0.00 | 0.00 | 22 | 1016.1 |
| 20260906003327 | 90 | 166 | 4.0 | 7.0 | 0.00 | 0.00 | 0.00 | 22 | 1016.1 |
| 20260906003243 | 90 | 165 | 3.0 | 7.0 | 0.00 | 0.00 | 0.00 | 22 | 1016.1 |
| 20260906003157 | 90 | 153 | 2.0 | 6.0 | 0.00 | 0.00 | 0.00 | 22 | 1016.2 |
| 20260906003142 | 90 | 198 | 2.0 | 6.0 | 0.00 | 0.00 | 0.00 | 22 | 1016.2 |
| 20260906002941 | 90 | 194 | 2.0 | 6.0 | 0.00 | 0.00 | 0.00 | 22 | 1016.2 |
| 20260906002837 | 90 | 143 | 2.0 | 6.0 | 0.00 | 0.00 | 0.00 | 22 | 1016.1 |
| 20260906002727 | 90 | 183 | 2.0 | 7.0 | 0.00 | 0.00 | 0.00 | 22 | 1016.2 |
| 20260906002642 | 90 | 205 | 1.0 | 7.0 | 0.00 | 0.00 | 0.00 | 22 | 1016.2 |
| 20260906002523 | 90 | 232 | 1.0 | 7.0 | 0.00 | 0.00 | 0.00 | 22 | 1016.2 |
| 20260906002430 | 90 | 157 | 2.0 | 7.0 | 0.00 | 0.00 | 0.00 | 22 | 1016.2 |
| 20260906002342 | 91 | 190 | 2.0 | 7.0 | 0.00 | 0.00 | 0.00 | 22 | 1016.3 |
| 20260906002228 | 91 | 176 | 3.0 | 7.0 | 0.00 | 0.00 | 0.00 | 22 | 1016.3 |
| 20260906002118 | 91 | 184 | 3.0 | 7.0 | 0.00 | 0.00 | 0.00 | 22 | 1016.2 |
| 20260906002030 | 91 | 145 | 3.0 | 7.0 | 0.00 | 0.00 | 0.00 | 22 | 1016.3 |
| 20260906001924 | 91 | 159 | 3.0 | 7.0 | 0.00 | 0.00 | 0.00 | 22 | 1016.3 |
| 20260906001831 | 90 | 155 | 2.0 | 7.0 | 0.00 | 0.00 | 0.00 | 22 | 1016.3 |
| 20260906001716 | 90 | 159 | 1.0 | 7.0 | 0.00 | 0.00 | 0.00 | 22 | 1016.3 |
| 20260906001649 | 90 | 205 | 2.0 | 7.0 | 0.00 | 0.00 | 0.00 | 22 | 1016.2 |
| 20260906001427 | 90 | 192 | 3.0 | 7.0 | 0.00 | 0.00 | 0.00 | 22 | 1016.3 |
| 20260906001324 | 90 | 220 | 3.0 | 7.0 | 0.00 | 0.00 | 0.00 | 22 | 1016.3 |
| 20260906001227 | 90 | 175 | 3.0 | 7.0 | 0.00 | 0.00 | 0.00 | 22 | 1016.2 |
| 20260906001132 | 90 | 197 | 4.0 | 7.0 | 0.00 | 0.00 | 0.00 | 22 | 1016.3 |
| 20260906001034 | 90 | 157 | 4.0 | 7.0 | 0.00 | 0.00 | 0.00 | 22 | 1016.2 |
| 20260906000924 | 90 | 159 | 3.0 | 7.0 | 0.00 | 0.00 | 0.00 | 22 | 1016.2 |
| 20260906000828 | 90 | 150 | 3.0 | 5.0 | 0.00 | 0.00 | 0.00 | 22 | 1016.2 |
| 20260906000743 | 90 | 215 | 3.0 | 5.0 | 0.00 | 0.00 | 0.00 | 22 | 1016.1 |
| 20260906000642 | 90 | 210 | 2.0 | 5.0 | 0.00 | 0.00 | 0.00 | 22 | 1016.1 |
| 20260906000531 | 90 | 160 | 2.0 | 5.0 | 0.00 | 0.00 | 0.00 | 22 | 1016.1 |
| 20260906000435 | 90 | 174 | 2.0 | 5.0 | 0.00 | 0.00 | 0.00 | 22 | 1016.1 |
| 20260906000342 | 90 | 205 | 2.0 | 5.0 | 0.00 | 0.00 | 0.00 | 22 | 1016.1 |
| 20260906000221 | 90 | 192 | 2.0 | 5.0 | 0.00 | 0.00 | 0.00 | 22 | 1016.1 |
| 20260906000136 | 91 | 206 | 1.0 | 7.0 | 0.00 | 0.00 | 0.00 | 22 | 1016.1 |
| 20260905235929 | 91 | 255 | 1.0 | 7.0 | 0.00 | 0.00 | 0.00 | 22 | 1016.2 |
| 20260905235824 | 91 | 187 | 2.0 | 7.0 | 0.00 | 0.00 | 0.00 | 22 | 1016.2 |
| 20260905235730 | 91 | 236 | 2.0 | 7.0 | 0.00 | 0.00 | 0.00 | 22 | 1016.1 |
| 20260905235617 | 90 | 214 | 2.0 | 7.0 | 0.00 | 0.00 | 0.00 | 22 | 1016.1 |
| 20260905235534 | 90 | 220 | 3.0 | 7.0 | 0.00 | 0.00 | 0.00 | 22 | 1016.2 |
| 20260905235441 | 90 | 212 | 4.0 | 7.0 | 0.00 | 0.00 | 0.00 | 22 | 1016.1 |
| 20260905235324 | 90 | 277 | 4.0 | 8.0 | 0.00 | 0.00 | 0.00 | 22 | 1016.2 |
| 20260905235227 | 90 | 257 | 4.0 | 8.0 | 0.00 | 0.00 | 0.00 | 22 | 1016.1 |
| 20260905235121 | 90 | 268 | 3.0 | 8.0 | 0.00 | 0.00 | 0.00 | 22 | 1016.2 |
| 20260905235034 | 90 | 241 | 2.0 | 8.0 | 0.00 | 0.00 | 0.00 | 22 | 1016.2 |
| 20260905234943 | 90 | 265 | 1.0 | 8.0 | 0.00 | 0.00 | 0.00 | 22 | 1016.2 |
| 20260905234839 | 90 | 175 | 1.0 | 8.0 | 0.00 | 0.00 | 0.00 | 22 | 1016.2 |
| 20260905234742 | 90 | 205 | 2.0 | 8.0 | 0.00 | 0.00 | 0.00 | 22 | 1016.2 |
| 20260905234702 | 90 | 158 | 3.0 | 8.0 | 0.00 | 0.00 | 0.00 | 22 | 1016.3 |
| 20260905234633 | 91 | 167 | 4.0 | 7.0 | 0.00 | 0.00 | 0.00 | 22 | 1016.4 |
| 20260905234425 | 91 | 213 | 4.0 | 7.0 | 0.00 | 0.00 | 0.00 | 22 | 1016.2 |
| 20260905234331 | 91 | 197 | 3.0 | 7.0 | 0.00 | 0.00 | 0.00 | 22 | 1016.2 |
| 20260905234226 | 91 | 293 | 3.0 | 7.0 | 0.00 | 0.00 | 0.00 | 22 | 1016.2 |
| 20260905234143 | 91 | 262 | 2.0 | 6.0 | 0.00 | 0.00 | 0.00 | 22 | 1016.3 |
| 20260905234025 | 91 | 286 | 3.0 | 6.0 | 0.00 | 0.00 | 0.00 | 22 | 1016.3 |
| 20260905233936 | 91 | 241 | 3.0 | 6.0 | 0.00 | 0.00 | 0.00 | 21 | 1016.3 |
| 20260905233824 | 91 | 195 | 2.0 | 7.0 | 0.00 | 0.00 | 0.00 | 22 | 1016.2 |
| 20260905233737 | 91 | 222 | 2.0 | 7.0 | 0.00 | 0.00 | 0.00 | 22 | 1016.3 |
| 20260905233641 | 91 | 202 | 3.0 | 7.0 | 0.00 | 0.00 | 0.00 | 21 | 1016.3 |
| 20260905233518 | 91 | 241 | 3.0 | 7.0 | 0.00 | 0.00 | 0.00 | 22 | 1016.3 |
| 20260905233443 | 91 | 267 | 2.0 | 7.0 | 0.00 | 0.00 | 0.00 | 21 | 1016.2 |
| 20260905233344 | 91 | 246 | 1.0 | 7.0 | 0.00 | 0.00 | 0.00 | 22 | 1016.3 |
| 20260905233230 | 91 | 282 | 0.0 | 6.0 | 0.00 | 0.00 | 0.00 | 22 | 1016.2 |
| 20260905233201 | 91 | 277 | 1.0 | 6.0 | 0.00 | 0.00 | 0.00 | 22 | 1016.3 |
| 20260905233150 | 91 | 253 | 2.0 | 6.0 | 0.00 | 0.00 | 0.00 | 21 | 1016.1 |
| 20260905232925 | 91 | 276 | 2.0 | 6.0 | 0.00 | 0.00 | 0.00 | 22 | 1016.2 |
| 20260905232823 | 91 | 267 | 3.0 | 6.0 | 0.00 | 0.00 | 0.00 | 21 | 1016.1 |
| 20260905232727 | 91 | 248 | 3.0 | 6.0 | 0.00 | 0.00 | 0.00 | 21 | 1016.1 |
| 20260905232619 | 91 | 300 | 3.0 | 6.0 | 0.00 | 0.00 | 0.00 | 21 | 1016.1 |
| 20260905232544 | 91 | 291 | 3.0 | 5.0 | 0.00 | 0.00 | 0.00 | 21 | 1016.0 |
| 20260905232436 | 91 | 292 | 3.0 | 5.0 | 0.00 | 0.00 | 0.00 | 21 | 1016.1 |
| 20260905232324 | 91 | 246 | 2.0 | 5.0 | 0.00 | 0.00 | 0.00 | 21 | 1016.1 |
| 20260905232227 | 91 | 225 | 1.0 | 5.0 | 0.00 | 0.00 | 0.00 | 21 | 1016.1 |
| 20260905232117 | 91 | 251 | 1.0 | 5.0 | 0.00 | 0.00 | 0.00 | 22 | 1016.3 |
| 20260905232042 | 91 | 279 | 1.0 | 5.0 | 0.00 | 0.00 | 0.00 | 21 | 1016.3 |
| 20260905231931 | 91 | 254 | 2.0 | 5.0 | 0.00 | 0.00 | 0.00 | 22 | 1016.3 |
| 20260905231823 | 91 | 325 | 1.0 | 5.0 | 0.00 | 0.00 | 0.00 | 22 | 1016.3 |
| 20260905231731 | 91 | 306 | 0.0 | 4.0 | 0.00 | 0.00 | 0.00 | 21 | 1016.3 |
| 20260905231704 | 91 | 311 | 0.0 | 4.0 | 0.00 | 0.00 | 0.00 | 21 | 1016.3 |
| 20260905231629 | 91 | 320 | 0.0 | 4.0 | 0.00 | 0.00 | 0.00 | 21 | 1016.2 |
| 20260905231425 | 91 | 308 | 1.0 | 4.0 | 0.00 | 0.00 | 0.00 | 21 | 1016.3 |
| 20260905231324 | 91 | 292 | 2.0 | 4.0 | 0.00 | 0.00 | 0.00 | 21 | 1016.2 |
| 20260905231224 | 91 | 287 | 2.0 | 4.0 | 0.00 | 0.00 | 0.00 | 21 | 1016.1 |
| 20260905231134 | 91 | 343 | 1.0 | 4.0 | 0.00 | 0.00 | 0.00 | 21 | 1016.1 |
| 20260905231039 | 91 | 338 | 1.0 | 4.0 | 0.00 | 0.00 | 0.00 | 22 | 1016.2 |
| 20260905230930 | 91 | 279 | 2.0 | 4.0 | 0.00 | 0.00 | 0.00 | 22 | 1016.1 |
| 20260905230831 | 91 | 315 | 2.0 | 4.0 | 0.00 | 0.00 | 0.00 | 22 | 1016.1 |
| 20260905230724 | 91 | 323 | 1.0 | 4.0 | 0.00 | 0.00 | 0.00 | 22 | 1016.1 |
| 20260905230639 | 91 | 350 | 1.0 | 4.0 | 0.00 | 0.00 | 0.00 | 22 | 1016.1 |
| 20260905230532 | 91 | 243 | 2.0 | 4.0 | 0.00 | 0.00 | 0.00 | 22 | 1016.1 |
| 20260905230418 | 91 | 216 | 2.0 | 4.0 | 0.00 | 0.00 | 0.00 | 22 | 1016.1 |
| 20260905230330 | 91 | 243 | 1.0 | 3.0 | 0.00 | 0.00 | 0.00 | 22 | 1016.1 |
| 20260905230216 | 91 | 244 | 0.0 | 4.0 | 0.00 | 0.00 | 0.00 | 22 | 1016.1 |
| 20260905230200 | 91 | 301 | 0.0 | 4.0 | 0.00 | 0.00 | 0.00 | 22 | 1016.0 |
| 20260905225941 | 90 | 309 | 0.0 | 4.0 | 0.00 | 0.00 | 0.00 | 22 | 1016.1 |
| 20260905225834 | 90 | 311 | 0.0 | 4.0 | 0.00 | 0.00 | 0.00 | 22 | 1016.0 |
| 20260905225720 | 90 | 319 | 0.0 | 4.0 | 0.00 | 0.00 | 0.00 | 22 | 1016.0 |
| 20260905225633 | 90 | 327 | 1.0 | 7.0 | 0.00 | 0.00 | 0.00 | 22 | 1016.0 |
| 20260905225525 | 90 | 350 | 1.0 | 7.0 | 0.00 | 0.00 | 0.00 | 22 | 1016.0 |
| 20260905225429 | 90 | 341 | 1.0 | 7.0 | 0.00 | 0.00 | 0.00 | 22 | 1016.0 |
| 20260905225340 | 90 | 311 | 1.0 | 7.0 | 0.00 | 0.00 | 0.00 | 22 | 1016.0 |
| 20260905225235 | 90 | 314 | 0.0 | 7.0 | 0.00 | 0.00 | 0.00 | 22 | 1016.0 |
| 20260905225139 | 90 | 327 | 1.0 | 7.0 | 0.00 | 0.00 | 0.00 | 22 | 1016.0 |
| 20260905225042 | 90 | 317 | 2.0 | 7.0 | 0.00 | 0.00 | 0.00 | 22 | 1016.0 |
| 20260905224935 | 90 | 244 | 2.0 | 7.0 | 0.00 | 0.00 | 0.00 | 22 | 1016.0 |
| 20260905224841 | 90 | 263 | 3.0 | 7.0 | 0.00 | 0.00 | 0.00 | 22 | 1016.0 |
| 20260905224721 | 91 | 259 | 2.0 | 6.0 | 0.00 | 0.00 | 0.00 | 22 | 1016.0 |
| 20260905224645 | 91 | 202 | 3.0 | 6.0 | 0.00 | 0.00 | 0.00 | 22 | 1016.0 |
| 20260905224437 | 91 | 209 | 3.0 | 6.0 | 0.00 | 0.00 | 0.00 | 22 | 1016.0 |
| 20260905224328 | 90 | 196 | 2.0 | 3.0 | 0.00 | 0.00 | 0.00 | 22 | 1016.0 |
| 20260905224229 | 90 | 242 | 2.0 | 3.0 | 0.00 | 0.00 | 0.00 | 22 | 1016.1 |
| 20260905224128 | 90 | 228 | 1.0 | 3.0 | 0.00 | 0.00 | 0.00 | 22 | 1016.1 |
| 20260905224024 | 90 | 234 | 0.0 | 2.0 | 0.00 | 0.00 | 0.00 | 22 | 1016.1 |
| 20260905223935 | 90 | 9 | 0.0 | 2.0 | 0.00 | 0.00 | 0.00 | 22 | 1016.0 |
| 20260905223823 | 90 | 9 | 0.0 | 3.0 | 0.00 | 0.00 | 0.00 | 22 | 1016.1 |
| 20260905223738 | 90 | 5 | 0.0 | 4.0 | 0.00 | 0.00 | 0.00 | 22 | 1016.1 |
| 20260905223629 | 90 | 15 | 0.0 | 5.0 | 0.00 | 0.00 | 0.00 | 22 | 1016.1 |
| 20260905223541 | 90 | 28 | 0.0 | 5.0 | 0.00 | 0.00 | 0.00 | 22 | 1016.1 |
| 20260905223431 | 90 | 121 | 0.0 | 5.0 | 0.00 | 0.00 | 0.00 | 22 | 1016.1 |
| 20260905223319 | 90 | 131 | 0.0 | 5.0 | 0.00 | 0.00 | 0.00 | 22 | 1016.2 |
| 20260905223217 | 90 | 143 | 0.0 | 5.0 | 0.00 | 0.00 | 0.00 | 22 | 1016.3 |
| 20260905223203 | 90 | 176 | 1.0 | 5.0 | 0.00 | 0.00 | 0.00 | 22 | 1016.3 |
| 20260905223155 | 90 | 175 | 2.0 | 5.0 | 0.00 | 0.00 | 0.00 | 22 | 1016.2 |
| 20260905222931 | 90 | 194 | 4.0 | 5.0 | 0.00 | 0.00 | 0.00 | 22 | 1016.1 |
| 20260905222826 | 90 | 198 | 4.0 | 5.0 | 0.00 | 0.00 | 0.00 | 22 | 1016.1 |
| 20260905222721 | 90 | 182 | 3.0 | 7.0 | 0.00 | 0.00 | 0.00 | 22 | 1016.2 |
| 20260905222624 | 90 | 239 | 3.0 | 7.0 | 0.00 | 0.00 | 0.00 | 22 | 1016.3 |
| 20260905222522 | 90 | 242 | 4.0 | 7.0 | 0.00 | 0.00 | 0.00 | 22 | 1016.3 |
| 20260905222418 | 90 | 259 | 3.0 | 10.0 | 0.00 | 0.00 | 0.00 | 22 | 1016.3 |
| 20260905222325 | 90 | 279 | 2.0 | 10.0 | 0.00 | 0.00 | 0.00 | 22 | 1016.3 |
| 20260905222223 | 90 | 310 | 1.0 | 10.0 | 0.00 | 0.00 | 0.00 | 22 | 1016.4 |
| 20260905222137 | 90 | 239 | 2.0 | 10.0 | 0.00 | 0.00 | 0.00 | 22 | 1016.4 |
| 20260905222034 | 90 | 244 | 3.0 | 10.0 | 0.00 | 0.00 | 0.00 | 22 | 1016.4 |
| 20260905221924 | 90 | 242 | 3.0 | 10.0 | 0.00 | 0.00 | 0.00 | 22 | 1016.5 |
| 20260905221839 | 90 | 186 | 3.0 | 10.0 | 0.00 | 0.00 | 0.00 | 22 | 1016.4 |
| 20260905221722 | 90 | 219 | 5.0 | 10.0 | 0.00 | 0.00 | 0.00 | 22 | 1016.5 |
| 20260905221719 | 90 | 235 | 5.0 | 10.0 | 0.00 | 0.00 | 0.00 | 22 | 1016.5 |
| 20260905221649 | 90 | 242 | 4.0 | 9.0 | 0.00 | 0.00 | 0.00 | 22 | 1016.4 |
| 20260905221438 | 90 | 272 | 6.0 | 9.0 | 0.00 | 0.00 | 0.00 | 22 | 1016.5 |
| 20260905221336 | 90 | 261 | 5.0 | 9.0 | 0.00 | 0.00 | 0.00 | 22 | 1016.5 |
| 20260905221244 | 90 | 246 | 3.0 | 11.0 | 0.00 | 0.00 | 0.00 | 23 | 1016.5 |
| 20260905221143 | 90 | 242 | 1.0 | 11.0 | 0.00 | 0.00 | 0.00 | 23 | 1016.5 |
| 20260905221025 | 90 | 299 | 1.0 | 11.0 | 0.00 | 0.00 | 0.00 | 22 | 1016.5 |
| 20260905220918 | 90 | 336 | 2.0 | 11.0 | 0.00 | 0.00 | 0.00 | 22 | 1016.5 |
| 20260905220818 | 90 | 273 | 4.0 | 11.0 | 0.00 | 0.00 | 0.00 | 22 | 1016.5 |
| 20260905220727 | 90 | 250 | 5.0 | 11.0 | 0.00 | 0.00 | 0.00 | 22 | 1016.5 |
| 20260905220624 | 91 | 234 | 6.0 | 11.0 | 0.00 | 0.00 | 0.00 | 22 | 1016.5 |
| 20260905220525 | 91 | 242 | 5.0 | 11.0 | 0.00 | 0.00 | 0.00 | 22 | 1016.5 |
| 20260905220418 | 91 | 259 | 3.0 | 11.0 | 0.00 | 0.00 | 0.00 | 23 | 1016.4 |
| 20260905220325 | 91 | 202 | 5.0 | 11.0 | 0.00 | 0.00 | 0.00 | 22 | 1016.4 |
| 20260905220230 | 91 | 144 | 5.0 | 11.0 | 0.00 | 0.00 | 0.00 | 22 | 1016.5 |
| 20260905220224 | 91 | 159 | 3.0 | 11.0 | 0.00 | 0.00 | 0.00 | 22 | 1016.5 |
| 20260905220200 | 91 | 259 | 3.0 | 9.0 | 0.00 | 0.00 | 0.00 | 22 | 1016.5 |
| 20260905215939 | 91 | 134 | 5.0 | 9.0 | 0.00 | 0.00 | 0.00 | 22 | 1016.5 |
| 20260905215820 | 91 | 194 | 5.0 | 9.0 | 0.00 | 0.00 | 0.00 | 22 | 1016.5 |
| 20260905215738 | 91 | 157 | 5.0 | 9.0 | 0.00 | 0.00 | 0.00 | 22 | 1016.4 |
| 20260905215637 | 91 | 263 | 4.0 | 8.0 | 0.00 | 0.00 | 0.00 | 22 | 1016.4 |